SWR161 RJAA-LSZH

Flight info

Callsign SWR161
Flight time 13h 54m
Altitude 29000
Route GULBO Y808 PUTER/N0505F300 A590 PUGAL/N0497F310 A590 POWAL DCT NATES R338 MARCC DCT JUJXI/N0489F330 DCT 70N165W/N0490F320 75N163W/N0493F340 80N160W/N0494F330 DCT LEESL/N0494F350 DCT 8730N06000W/M084F350 85N020W 80N006W/M084F340 75N004W/M084F350 70N000W/N0489F350 DCT KOTIV/N0482F370 DCT IDIPI DCT AMRAK/N0483F360 DCT SWALM DCT OMOGI/N0484F370 T721 LAMGO/N0477F270 T721 RILAX
Aircraft B77W/H-SDE2E3FGHIJ4J5M1P2RWXY/LB1D1G1

Departure

Time 2026-05-07 08:16
Airport Narita International Airport (RJAA)

Arrival

Time 2026-05-07 22:10
Airport Zürich Airport (LSZH)
Time Latitude Longitude Altitude Speed Heading
2026-05-07 07:44 35.76068 140.38447 149 ft 0 kts 59°
2026-05-07 08:06 35.76058 140.38425 149 ft 4 kts 60°
2026-05-07 08:06 35.76044 140.38397 149 ft 4 kts 50°
2026-05-07 08:06 35.76024 140.38376 149 ft 4 kts 21°
2026-05-07 08:06 35.75999 140.38372 149 ft 4 kts 342°
2026-05-07 08:07 35.75990 140.38376 149 ft 0 kts 329°
2026-05-07 08:10 35.76022 140.38351 149 ft 11 kts 320°
2026-05-07 08:11 35.76045 140.38263 149 ft 12 kts 258°
2026-05-07 08:11 35.76011 140.38175 149 ft 12 kts 259°
2026-05-07 08:11 35.76050 140.38093 149 ft 12 kts 320°
2026-05-07 08:11 35.76131 140.38030 148 ft 18 kts 329°
2026-05-07 08:12 35.76258 140.37938 148 ft 23 kts 329°
2026-05-07 08:12 35.76396 140.37839 148 ft 23 kts 330°
2026-05-07 08:12 35.76534 140.37739 148 ft 23 kts 329°
2026-05-07 08:12 35.76672 140.37640 148 ft 23 kts 329°
2026-05-07 08:13 35.76810 140.37540 148 ft 23 kts 329°
2026-05-07 08:13 35.76946 140.37441 148 ft 23 kts 329°
2026-05-07 08:13 35.77084 140.37341 148 ft 23 kts 330°
2026-05-07 08:13 35.77223 140.37242 148 ft 23 kts 330°
2026-05-07 08:14 35.77362 140.37143 148 ft 23 kts 330°
2026-05-07 08:14 35.77463 140.37068 148 ft 11 kts 321°
2026-05-07 08:14 35.77490 140.36983 148 ft 12 kts 259°
2026-05-07 08:14 35.77455 140.36902 148 ft 9 kts 239°
2026-05-07 08:15 35.77420 140.36852 148 ft 7 kts 199°
2026-05-07 08:15 35.77403 140.36858 148 ft 0 kts 149°
2026-05-07 08:15 35.77391 140.36867 148 ft 10 kts 149°
2026-05-07 08:15 35.77175 140.37022 147 ft 75 kts 150°
2026-05-07 08:16 35.76473 140.37527 150 ft 157 kts 149°
2026-05-07 08:16 35.75360 140.38337 391 ft 196 kts 150°
2026-05-07 08:16 35.74170 140.39190 1171 ft 202 kts 152°
2026-05-07 08:16 35.72921 140.40051 2027 ft 207 kts 154°
2026-05-07 08:17 35.71663 140.40928 2476 ft 217 kts 153°
2026-05-07 08:17 35.70335 140.41894 2800 ft 225 kts 152°
2026-05-07 08:17 35.68948 140.42905 3088 ft 238 kts 152°
2026-05-07 08:17 35.67494 140.43963 3444 ft 247 kts 152°
2026-05-07 08:18 35.65970 140.45069 3713 ft 263 kts 152°
2026-05-07 08:18 35.64363 140.46235 4140 ft 273 kts 152°
2026-05-07 08:18 35.62712 140.47431 4659 ft 281 kts 152°
2026-05-07 08:18 35.61016 140.48657 5198 ft 285 kts 153°
2026-05-07 08:19 35.59302 140.49895 5830 ft 287 kts 153°
2026-05-07 08:19 35.57574 140.51145 6418 ft 290 kts 153°
2026-05-07 08:19 35.55822 140.52403 6952 ft 293 kts 154°
2026-05-07 08:19 35.54057 140.53670 7512 ft 295 kts 154°
2026-05-07 08:20 35.52283 140.54942 8097 ft 297 kts 154°
2026-05-07 08:20 35.50489 140.56229 8654 ft 299 kts 154°
2026-05-07 08:20 35.48688 140.57520 9225 ft 301 kts 154°
2026-05-07 08:20 35.46887 140.58810 9765 ft 304 kts 155°
2026-05-07 08:21 35.45046 140.60128 10258 ft 308 kts 155°
2026-05-07 08:21 35.43168 140.61523 10396 ft 325 kts 147°
2026-05-07 08:21 35.41606 140.63627 10477 ft 345 kts 128°
2026-05-07 08:21 35.40264 140.66162 10628 ft 363 kts 127°
2026-05-07 08:22 35.38842 140.68808 10790 ft 379 kts 128°
2026-05-07 08:22 35.37357 140.71534 11150 ft 389 kts 128°
2026-05-07 08:22 35.35854 140.74269 11635 ft 395 kts 128°
2026-05-07 08:22 35.34291 140.77099 12240 ft 397 kts 128°
2026-05-07 08:23 35.32748 140.79878 12840 ft 400 kts 128°
2026-05-07 08:23 35.31173 140.82705 13415 ft 403 kts 128°
2026-05-07 08:23 35.29587 140.85547 13919 ft 407 kts 128°
2026-05-07 08:23 35.27981 140.88421 14389 ft 411 kts 128°
2026-05-07 08:24 35.26360 140.91324 14911 ft 413 kts 128°
2026-05-07 08:24 35.24732 140.94235 15432 ft 416 kts 128°
2026-05-07 08:24 35.23089 140.97170 15911 ft 419 kts 127°
2026-05-07 08:24 35.21777 141.00374 16175 ft 431 kts 108°
2026-05-07 08:25 35.21471 141.04067 16529 ft 443 kts 87°
2026-05-07 08:25 35.22131 141.07762 17032 ft 447 kts 70°
2026-05-07 08:25 35.23298 141.11242 17426 ft 450 kts 68°
2026-05-07 08:25 35.24519 141.14799 17830 ft 455 kts 68°
2026-05-07 08:26 35.26958 141.22015 18719 ft 461 kts 69°
2026-05-07 08:26 35.28100 141.25687 19076 ft 461 kts 76°
2026-05-07 08:26 35.28685 141.29555 19333 ft 465 kts 86°
2026-05-07 08:27 35.28963 141.33510 19727 ft 467 kts 87°
2026-05-07 08:27 35.29288 141.37486 20160 ft 470 kts 84°
2026-05-07 08:27 35.29748 141.41457 20532 ft 474 kts 82°
2026-05-07 08:27 35.30254 141.45457 20899 ft 477 kts 84°
2026-05-07 08:28 35.30623 141.49456 21263 ft 480 kts 86°
2026-05-07 08:28 35.30904 141.53541 21657 ft 482 kts 88°
2026-05-07 08:28 35.31159 141.57656 22038 ft 485 kts 88°
2026-05-07 08:28 35.31420 141.61786 22398 ft 488 kts 87°
2026-05-07 08:29 35.31698 141.65943 22756 ft 491 kts 87°
2026-05-07 08:29 35.31991 141.70140 23104 ft 494 kts 87°
2026-05-07 08:29 35.32288 141.74353 23445 ft 497 kts 87°
2026-05-07 08:29 35.32584 141.78584 23744 ft 500 kts 87°
2026-05-07 08:30 35.32878 141.82830 24037 ft 502 kts 87°
2026-05-07 08:30 35.33168 141.87062 24292 ft 505 kts 87°
2026-05-07 08:30 35.33461 141.91357 24570 ft 508 kts 87°
2026-05-07 08:30 35.33754 141.95671 24874 ft 509 kts 87°
2026-05-07 08:31 35.34046 142.00000 25160 ft 511 kts 88°
2026-05-07 08:31 35.34339 142.04356 25503 ft 511 kts 88°
2026-05-07 08:31 35.34630 142.08698 25789 ft 514 kts 88°
2026-05-07 08:31 35.34919 142.13042 26038 ft 517 kts 88°
2026-05-07 08:32 35.35210 142.17433 26291 ft 519 kts 88°
2026-05-07 08:32 35.35500 142.21846 26570 ft 520 kts 88°
2026-05-07 08:32 35.35790 142.26275 26848 ft 522 kts 88°
2026-05-07 08:32 35.36079 142.30713 27100 ft 525 kts 88°
2026-05-07 08:33 35.36369 142.35182 27283 ft 528 kts 88°
2026-05-07 08:33 35.36658 142.39685 27515 ft 530 kts 88°
2026-05-07 08:33 35.36947 142.44194 27794 ft 532 kts 88°
2026-05-07 08:33 35.37236 142.48724 28047 ft 533 kts 88°
2026-05-07 08:34 35.37523 142.53260 28284 ft 534 kts 88°
2026-05-07 08:34 35.37809 142.57804 28535 ft 536 kts 88°
2026-05-07 08:34 35.38093 142.62369 28757 ft 537 kts 88°
2026-05-07 08:34 35.38377 142.66952 28888 ft 540 kts 88°
2026-05-07 08:35 35.38936 142.76042 28960 ft 535 kts 88°
2026-05-07 08:35 35.39490 142.85143 28971 ft 534 kts 88°
2026-05-07 08:36 35.40035 142.94240 28987 ft 537 kts 88°
2026-05-07 08:36 35.40487 143.01879 28991 ft 542 kts 88°
2026-05-07 08:37 35.41027 143.11093 29086 ft 542 kts 88°
2026-05-07 08:37 35.41562 143.20307 29195 ft 542 kts 88°
2026-05-07 08:38 35.42739 143.29415 29246 ft 545 kts 67°
2026-05-07 08:38 35.44617 143.33447 29306 ft 545 kts 51°
2026-05-07 08:38 35.47184 143.36841 29383 ft 543 kts 37°
2026-05-07 08:39 35.50286 143.39428 29431 ft 538 kts 26°
2026-05-07 08:39 35.53529 143.41625 29529 ft 539 kts 26°
2026-05-07 08:39 35.60117 143.46126 29649 ft 545 kts 27°
2026-05-07 08:40 35.63411 143.48457 29753 ft 547 kts 27°
2026-05-07 08:40 35.66706 143.50827 30002 ft 546 kts 27°
2026-05-07 08:40 35.69985 143.53203 30227 ft 544 kts 27°
2026-05-07 08:40 35.73247 143.55573 30334 ft 545 kts 27°
2026-05-07 08:41 35.79795 143.60314 30576 ft 546 kts 27°
2026-05-07 08:41 35.83073 143.62691 30747 ft 545 kts 27°
2026-05-07 08:41 35.86304 143.65041 30890 ft 546 kts 27°
2026-05-07 08:42 35.92858 143.69823 30978 ft 546 kts 27°
2026-05-07 08:42 35.99400 143.74605 30992 ft 545 kts 27°
2026-05-07 08:43 36.05908 143.79371 30983 ft 543 kts 27°
2026-05-07 08:43 36.12388 143.84125 30982 ft 540 kts 27°
2026-05-07 08:44 36.18810 143.88845 30983 ft 539 kts 27°
2026-05-07 08:44 36.25262 143.93594 30989 ft 538 kts 27°
2026-05-07 08:45 36.31721 143.98338 30988 ft 540 kts 27°
2026-05-07 08:45 36.38193 144.03095 30993 ft 541 kts 27°
2026-05-07 08:46 36.44651 144.07856 30992 ft 543 kts 27°
2026-05-07 08:46 36.51173 144.12676 31009 ft 545 kts 27°
2026-05-07 08:47 36.57712 144.17519 30986 ft 547 kts 27°
2026-05-07 08:47 36.64219 144.22346 30982 ft 548 kts 27°
2026-05-07 08:48 36.70769 144.27217 31005 ft 545 kts 27°
2026-05-07 08:48 36.77258 144.32071 30987 ft 542 kts 27°
2026-05-07 08:49 36.83723 144.36875 30973 ft 540 kts 28°
2026-05-07 08:49 36.90143 144.41696 30976 ft 538 kts 28°
2026-05-07 08:50 36.96559 144.46537 30978 ft 538 kts 28°
2026-05-07 08:50 37.02973 144.51392 30977 ft 537 kts 28°
2026-05-07 08:51 37.09339 144.56214 30972 ft 537 kts 28°
2026-05-07 08:51 37.15716 144.61050 30973 ft 535 kts 28°
2026-05-07 08:52 37.22076 144.65881 30964 ft 533 kts 28°
2026-05-07 08:52 37.28416 144.70706 30969 ft 532 kts 29°
2026-05-07 08:53 37.34720 144.75514 30985 ft 532 kts 28°
2026-05-07 08:53 37.41057 144.80355 30969 ft 533 kts 28°
2026-05-07 08:54 37.47397 144.85211 30972 ft 534 kts 28°
2026-05-07 08:54 37.53758 144.90091 30967 ft 535 kts 28°
2026-05-07 08:55 37.60086 144.94956 30976 ft 536 kts 28°
2026-05-07 08:55 37.66448 144.99857 30975 ft 536 kts 28°
2026-05-07 08:56 37.72825 145.04778 30978 ft 537 kts 28°
2026-05-07 08:56 37.79196 145.09709 30974 ft 537 kts 28°
2026-05-07 08:57 37.85566 145.14649 30990 ft 537 kts 28°
2026-05-07 08:57 37.91948 145.19605 30977 ft 538 kts 28°
2026-05-07 08:58 37.98239 145.24500 30973 ft 539 kts 28°
2026-05-07 08:58 38.04635 145.29488 30978 ft 539 kts 28°
2026-05-07 08:59 38.11035 145.34491 30993 ft 539 kts 28°
2026-05-07 08:59 38.17425 145.39497 30983 ft 539 kts 28°
2026-05-07 09:00 38.23775 145.44478 30979 ft 539 kts 28°
2026-05-07 09:00 38.30161 145.49505 30985 ft 539 kts 28°
2026-05-07 09:01 38.36220 145.55202 30977 ft 545 kts 39°
2026-05-07 09:01 38.41761 145.61811 30992 ft 545 kts 40°
2026-05-07 09:02 38.47285 145.68449 30992 ft 545 kts 40°
2026-05-07 09:02 38.52808 145.75021 30987 ft 546 kts 40°
2026-05-07 09:03 38.58377 145.81613 30993 ft 546 kts 39°
2026-05-07 09:03 38.63946 145.88216 30984 ft 546 kts 40°
2026-05-07 09:04 38.69513 145.94836 31013 ft 546 kts 40°
2026-05-07 09:04 38.75080 146.01476 30991 ft 547 kts 39°
2026-05-07 09:05 38.80652 146.08130 30995 ft 547 kts 39°
2026-05-07 09:05 38.86225 146.14806 30992 ft 548 kts 39°
2026-05-07 09:06 38.91759 146.21451 30996 ft 549 kts 39°
2026-05-07 09:06 38.97331 146.28156 30995 ft 549 kts 39°
2026-05-07 09:07 39.02900 146.34874 31009 ft 549 kts 39°
2026-05-07 09:07 39.08483 146.41620 31000 ft 550 kts 39°
2026-05-07 09:08 39.14065 146.48382 30992 ft 550 kts 39°
2026-05-07 09:08 39.19601 146.55103 31000 ft 550 kts 39°
2026-05-07 09:09 39.25166 146.61875 30996 ft 550 kts 39°
2026-05-07 09:09 39.30738 146.68672 31004 ft 550 kts 39°
2026-05-07 09:10 39.36300 146.75475 31008 ft 551 kts 39°
2026-05-07 09:10 39.41868 146.82295 31004 ft 551 kts 39°
2026-05-07 09:11 39.47434 146.89129 31011 ft 551 kts 39°
2026-05-07 09:11 39.52992 146.95972 31005 ft 552 kts 39°
2026-05-07 09:12 39.58555 147.02838 31005 ft 552 kts 39°
2026-05-07 09:12 39.64081 147.09673 31021 ft 552 kts 39°
2026-05-07 09:13 39.69637 147.16554 31027 ft 552 kts 39°
2026-05-07 09:13 39.75191 147.23455 31010 ft 552 kts 39°
2026-05-07 09:14 39.80739 147.30369 31009 ft 553 kts 39°
2026-05-07 09:14 39.86285 147.37296 31008 ft 553 kts 39°
2026-05-07 09:15 39.91831 147.44237 31010 ft 553 kts 39°
2026-05-07 09:15 39.97384 147.51203 31026 ft 554 kts 38°
2026-05-07 09:16 40.02935 147.58182 31008 ft 554 kts 38°
2026-05-07 09:16 40.08446 147.65127 31023 ft 554 kts 38°
2026-05-07 09:17 40.13983 147.72123 31007 ft 553 kts 38°
2026-05-07 09:17 40.19522 147.79138 31008 ft 553 kts 38°
2026-05-07 09:18 40.25044 147.86147 31000 ft 552 kts 38°
2026-05-07 09:18 40.30522 147.93119 31019 ft 553 kts 38°
2026-05-07 09:19 40.36037 148.00152 31014 ft 553 kts 38°
2026-05-07 09:19 40.41549 148.07200 31010 ft 553 kts 38°
2026-05-07 09:20 40.47053 148.14255 31022 ft 553 kts 38°
2026-05-07 09:20 40.52560 148.21330 31006 ft 553 kts 38°
2026-05-07 09:21 40.58049 148.28400 31014 ft 552 kts 38°
2026-05-07 09:21 40.63498 148.35435 31016 ft 552 kts 38°
2026-05-07 09:22 40.68980 148.42530 31009 ft 551 kts 38°
2026-05-07 09:22 40.74453 148.49629 31023 ft 550 kts 38°
2026-05-07 09:23 40.79867 148.56671 31011 ft 550 kts 38°
2026-05-07 09:23 40.85309 148.63766 31012 ft 549 kts 38°
2026-05-07 09:24 40.90745 148.70870 31023 ft 549 kts 38°
2026-05-07 09:24 40.96169 148.77976 31010 ft 549 kts 38°
2026-05-07 09:25 41.00685 148.83906 31009 ft 549 kts 38°
2026-05-07 09:25 41.06981 148.92193 31009 ft 549 kts 38°
2026-05-07 09:26 41.11522 148.98186 31008 ft 549 kts 39°
2026-05-07 09:26 41.16896 149.05299 31009 ft 549 kts 39°
2026-05-07 09:27 41.22302 149.12479 31030 ft 550 kts 39°
2026-05-07 09:28 41.30415 149.23284 31008 ft 550 kts 39°
2026-05-07 09:28 41.35814 149.30497 31020 ft 550 kts 39°
2026-05-07 09:29 41.41210 149.37725 30994 ft 550 kts 39°
2026-05-07 09:29 41.46599 149.44960 31000 ft 549 kts 39°
2026-05-07 09:30 41.51978 149.52200 31012 ft 549 kts 39°
2026-05-07 09:30 41.57354 149.59454 31012 ft 549 kts 39°
2026-05-07 09:31 41.62701 149.66686 31005 ft 549 kts 39°
2026-05-07 09:31 41.68065 149.73962 31009 ft 549 kts 39°
2026-05-07 09:32 41.73423 149.81246 30997 ft 548 kts 39°
2026-05-07 09:32 41.78769 149.88533 30996 ft 547 kts 39°
2026-05-07 09:33 41.84069 149.95776 31013 ft 546 kts 39°
2026-05-07 09:33 41.89389 150.03064 31004 ft 546 kts 39°
2026-05-07 09:34 41.94709 150.10369 30996 ft 546 kts 39°
2026-05-07 09:34 42.00023 150.17685 31011 ft 546 kts 39°
2026-05-07 09:35 42.05327 150.25007 30991 ft 546 kts 39°
2026-05-07 09:35 42.10595 150.32297 30992 ft 546 kts 39°
2026-05-07 09:36 42.15889 150.39642 30999 ft 546 kts 39°
2026-05-07 09:36 42.21189 150.47014 30992 ft 547 kts 39°
2026-05-07 09:37 42.26500 150.54419 30995 ft 548 kts 39°
2026-05-07 09:37 42.31801 150.61831 30995 ft 548 kts 39°
2026-05-07 09:38 42.37095 150.69253 30989 ft 549 kts 39°
2026-05-07 09:38 42.42400 150.76709 30989 ft 549 kts 40°
2026-05-07 09:39 42.47657 150.84117 30994 ft 548 kts 40°
2026-05-07 09:39 42.52942 150.91584 30997 ft 548 kts 40°
2026-05-07 09:40 42.58215 150.99052 30980 ft 548 kts 40°
2026-05-07 09:40 42.63490 151.06544 30978 ft 548 kts 40°
2026-05-07 09:41 42.68726 151.14000 30980 ft 548 kts 40°
2026-05-07 09:41 42.73993 151.21518 30981 ft 548 kts 40°
2026-05-07 09:42 42.79249 151.29041 30979 ft 548 kts 40°
2026-05-07 09:42 42.84490 151.36564 30988 ft 547 kts 40°
2026-05-07 09:43 42.89732 151.44106 30975 ft 548 kts 40°
2026-05-07 09:43 42.94934 151.51611 30983 ft 547 kts 40°
2026-05-07 09:44 43.00147 151.59154 30966 ft 545 kts 40°
2026-05-07 09:44 43.05356 151.66710 30971 ft 544 kts 40°
2026-05-07 09:45 43.10510 151.74204 30976 ft 544 kts 40°
2026-05-07 09:45 43.15689 151.81754 30968 ft 544 kts 40°
2026-05-07 09:46 43.20879 151.89339 30972 ft 545 kts 40°
2026-05-07 09:46 43.26065 151.96940 30977 ft 546 kts 41°
2026-05-07 09:47 43.31260 152.04576 30977 ft 548 kts 41°
2026-05-07 09:47 43.36463 152.12244 30965 ft 549 kts 41°
2026-05-07 09:48 43.41665 152.19932 30954 ft 550 kts 41°
2026-05-07 09:48 43.46842 152.27603 30973 ft 551 kts 41°
2026-05-07 09:49 43.52061 152.35357 30968 ft 552 kts 41°
2026-05-07 09:49 43.57283 152.43136 30970 ft 553 kts 41°
2026-05-07 09:50 43.62505 152.50937 30962 ft 554 kts 41°
2026-05-07 09:50 43.67737 152.58777 30965 ft 554 kts 41°
2026-05-07 09:51 43.72923 152.66567 30962 ft 554 kts 41°
2026-05-07 09:51 43.78140 152.74428 30963 ft 554 kts 42°
2026-05-07 09:52 43.83350 152.82299 30960 ft 553 kts 42°
2026-05-07 09:52 43.88542 152.90164 30961 ft 552 kts 42°
2026-05-07 09:53 43.93723 152.98034 30957 ft 552 kts 42°
2026-05-07 09:53 43.98891 153.05905 30950 ft 551 kts 42°
2026-05-07 09:54 44.04017 153.13737 30944 ft 550 kts 42°
2026-05-07 09:54 44.09162 153.21616 30959 ft 550 kts 42°
2026-05-07 09:55 44.14300 153.29508 30948 ft 549 kts 42°
2026-05-07 09:55 44.19430 153.37408 30956 ft 550 kts 43°
2026-05-07 09:56 44.24555 153.45323 30946 ft 551 kts 43°
2026-05-07 09:56 44.29687 153.53271 30944 ft 552 kts 43°
2026-05-07 09:57 44.34792 153.61202 30939 ft 553 kts 43°
2026-05-07 09:57 44.39938 153.69209 30928 ft 553 kts 43°
2026-05-07 09:58 44.44975 153.77297 30916 ft 550 kts 43°
2026-05-07 09:58 44.50104 153.85242 30929 ft 550 kts 42°
2026-05-07 09:59 44.55255 153.93213 30954 ft 552 kts 43°
2026-05-07 09:59 44.60343 154.01211 30929 ft 552 kts 43°
2026-05-07 10:00 44.65445 154.09291 30923 ft 552 kts 43°
2026-05-07 10:00 44.70538 154.17370 30928 ft 551 kts 43°
2026-05-07 10:01 44.75604 154.25423 30928 ft 549 kts 43°
2026-05-07 10:01 44.80667 154.33491 30910 ft 548 kts 43°
2026-05-07 10:02 44.85704 154.41541 30943 ft 547 kts 43°
2026-05-07 10:02 44.90699 154.49663 30932 ft 548 kts 44°
2026-05-07 10:03 44.95652 154.57851 30923 ft 549 kts 44°
2026-05-07 10:03 45.00572 154.66008 30918 ft 549 kts 44°
2026-05-07 10:04 45.05533 154.74237 30931 ft 549 kts 44°
2026-05-07 10:04 45.10485 154.82461 30917 ft 549 kts 44°
2026-05-07 10:05 45.15434 154.90703 30911 ft 548 kts 44°
2026-05-07 10:05 45.20359 154.98933 30948 ft 547 kts 43°
2026-05-07 10:06 45.25284 155.07186 30925 ft 548 kts 43°
2026-05-07 10:06 45.30172 155.15399 30912 ft 548 kts 43°
2026-05-07 10:07 45.35084 155.23680 30904 ft 548 kts 44°
2026-05-07 10:07 45.39990 155.31976 30909 ft 547 kts 43°
2026-05-07 10:08 45.44885 155.40275 30900 ft 547 kts 43°
2026-05-07 10:08 45.49770 155.48584 30904 ft 546 kts 43°
2026-05-07 10:09 45.54645 155.56900 30940 ft 546 kts 43°
2026-05-07 10:09 45.59519 155.65238 30910 ft 546 kts 43°
2026-05-07 10:10 45.64348 155.73523 30897 ft 546 kts 43°
2026-05-07 10:10 45.69210 155.81891 30910 ft 547 kts 43°
2026-05-07 10:11 45.74061 155.90266 30898 ft 547 kts 43°
2026-05-07 10:11 45.78907 155.98657 30893 ft 546 kts 43°
2026-05-07 10:12 45.82920 156.05625 30892 ft 545 kts 43°
2026-05-07 10:12 45.87741 156.14019 30892 ft 545 kts 43°
2026-05-07 10:13 45.92559 156.22430 30897 ft 545 kts 43°
2026-05-07 10:13 45.97379 156.30870 30891 ft 546 kts 43°
2026-05-07 10:14 46.02195 156.39330 30919 ft 547 kts 43°
2026-05-07 10:14 46.07025 156.47844 30891 ft 548 kts 43°
2026-05-07 10:15 46.11812 156.56307 30880 ft 548 kts 43°
2026-05-07 10:15 46.16621 156.64835 30884 ft 548 kts 43°
2026-05-07 10:16 46.21424 156.73379 30892 ft 547 kts 43°
2026-05-07 10:16 46.26211 156.81916 30891 ft 547 kts 43°
2026-05-07 10:17 46.30993 156.90472 30872 ft 546 kts 43°
2026-05-07 10:17 46.35772 156.99049 30895 ft 547 kts 43°
2026-05-07 10:18 46.40538 157.07629 30884 ft 547 kts 43°
2026-05-07 10:18 46.45306 157.16241 30886 ft 547 kts 43°
2026-05-07 10:19 46.50064 157.24861 30883 ft 548 kts 43°
2026-05-07 10:19 46.54784 157.33441 30879 ft 547 kts 43°
2026-05-07 10:20 46.59533 157.42099 30922 ft 547 kts 43°
2026-05-07 10:20 46.64289 157.50795 30888 ft 549 kts 43°
2026-05-07 10:21 46.69037 157.59502 30895 ft 550 kts 43°
2026-05-07 10:21 46.73791 157.68252 30884 ft 550 kts 43°
2026-05-07 10:22 46.78512 157.76968 30887 ft 550 kts 43°
2026-05-07 10:22 46.83251 157.85746 30882 ft 550 kts 43°
2026-05-07 10:23 46.87985 157.94542 30889 ft 550 kts 43°
2026-05-07 10:23 46.92704 158.03338 30886 ft 549 kts 43°
2026-05-07 10:24 46.97409 158.12135 30898 ft 549 kts 43°
2026-05-07 10:24 47.02118 158.20966 30907 ft 550 kts 43°
2026-05-07 10:25 47.06828 158.29827 30896 ft 551 kts 44°
2026-05-07 10:25 47.11505 158.38658 30893 ft 551 kts 44°
2026-05-07 10:26 47.16210 158.47569 30897 ft 551 kts 44°
2026-05-07 10:26 47.20910 158.56500 30902 ft 551 kts 44°
2026-05-07 10:27 47.25600 158.65439 30891 ft 551 kts 44°
2026-05-07 10:27 47.30279 158.74390 30898 ft 551 kts 44°
2026-05-07 10:28 47.34924 158.83301 30902 ft 552 kts 44°
2026-05-07 10:28 47.39607 158.92313 30904 ft 553 kts 44°
2026-05-07 10:29 47.44300 159.01373 30903 ft 555 kts 44°
2026-05-07 10:29 47.48991 159.10464 30904 ft 556 kts 44°
2026-05-07 10:30 47.55997 159.24099 30903 ft 557 kts 44°
2026-05-07 10:30 47.60678 159.33246 30907 ft 557 kts 44°
2026-05-07 10:31 47.65353 159.42414 30942 ft 557 kts 44°
2026-05-07 10:31 47.70033 159.51617 30909 ft 559 kts 44°
2026-05-07 10:32 47.74708 159.60843 30916 ft 559 kts 44°
2026-05-07 10:32 47.79375 159.70087 30906 ft 559 kts 44°
2026-05-07 10:33 47.84008 159.79294 30929 ft 559 kts 44°
2026-05-07 10:33 47.88670 159.88589 30912 ft 559 kts 44°
2026-05-07 10:34 47.93320 159.97892 30913 ft 559 kts 44°
2026-05-07 10:34 47.97955 160.07197 30912 ft 559 kts 44°
2026-05-07 10:35 48.02561 160.16476 30945 ft 560 kts 44°
2026-05-07 10:35 48.07204 160.25857 30925 ft 561 kts 44°
2026-05-07 10:36 48.11847 160.35276 30920 ft 562 kts 44°
2026-05-07 10:36 48.16483 160.44714 30934 ft 563 kts 44°
2026-05-07 10:37 48.21088 160.54120 30920 ft 563 kts 44°
2026-05-07 10:37 48.25715 160.63604 30917 ft 563 kts 45°
2026-05-07 10:38 48.30306 160.73134 30920 ft 564 kts 46°
2026-05-07 10:38 48.34777 160.82837 30930 ft 565 kts 46°
2026-05-07 10:39 48.39222 160.92609 30927 ft 566 kts 46°
2026-05-07 10:39 48.43678 161.02380 30925 ft 566 kts 46°
2026-05-07 10:40 48.48151 161.12180 30937 ft 566 kts 46°
2026-05-07 10:40 48.52620 161.21994 30924 ft 567 kts 46°
2026-05-07 10:41 48.57078 161.31827 30920 ft 567 kts 46°
2026-05-07 10:41 48.61499 161.41617 30923 ft 567 kts 46°
2026-05-07 10:42 48.65940 161.51489 30929 ft 567 kts 46°
2026-05-07 10:42 48.70376 161.61384 30918 ft 568 kts 46°
2026-05-07 10:43 48.74808 161.71308 30923 ft 569 kts 46°
2026-05-07 10:43 48.79211 161.81200 30931 ft 569 kts 46°
2026-05-07 10:44 48.83632 161.91173 30920 ft 569 kts 47°
2026-05-07 10:44 48.88043 162.01161 30913 ft 569 kts 47°
2026-05-07 10:45 48.92451 162.11178 30914 ft 569 kts 47°
2026-05-07 10:45 48.96840 162.21189 30923 ft 569 kts 47°
2026-05-07 10:46 49.01226 162.31231 30913 ft 569 kts 47°
2026-05-07 10:46 49.05592 162.41265 30908 ft 568 kts 47°
2026-05-07 10:47 49.09925 162.51260 30921 ft 569 kts 47°
2026-05-07 10:47 49.14285 162.61354 30910 ft 569 kts 47°
2026-05-07 10:48 49.18635 162.71463 30904 ft 569 kts 47°
2026-05-07 10:48 49.22974 162.81587 30902 ft 569 kts 48°
2026-05-07 10:49 49.27310 162.91741 30929 ft 569 kts 48°
2026-05-07 10:49 49.31638 163.01913 30909 ft 570 kts 48°
2026-05-07 10:50 49.35954 163.12099 30901 ft 569 kts 48°
2026-05-07 10:50 49.40232 163.22234 30891 ft 569 kts 48°
2026-05-07 10:51 49.44527 163.32449 30928 ft 569 kts 48°
2026-05-07 10:51 49.48822 163.42700 30896 ft 569 kts 48°
2026-05-07 10:52 49.53099 163.52951 30882 ft 568 kts 48°
2026-05-07 10:52 49.57335 163.63142 30885 ft 567 kts 49°
2026-05-07 10:53 49.61578 163.73387 30890 ft 567 kts 49°
2026-05-07 10:53 49.65813 163.83653 30877 ft 566 kts 49°
2026-05-07 10:54 49.70028 163.93913 30880 ft 565 kts 49°
2026-05-07 10:54 49.74234 164.04189 30889 ft 565 kts 49°
2026-05-07 10:55 49.78425 164.14468 30883 ft 565 kts 49°
2026-05-07 10:55 49.82614 164.24780 30876 ft 566 kts 49°
2026-05-07 10:56 49.86794 164.35113 30876 ft 565 kts 49°
2026-05-07 10:56 49.90938 164.45399 30879 ft 565 kts 49°
2026-05-07 10:57 49.95092 164.55751 30855 ft 564 kts 49°
2026-05-07 10:57 49.99239 164.66123 30869 ft 564 kts 49°
2026-05-07 10:58 50.02674 164.74745 30862 ft 564 kts 49°
2026-05-07 10:58 50.06792 164.85122 30862 ft 563 kts 49°
2026-05-07 10:59 50.10902 164.95519 30856 ft 563 kts 49°
2026-05-07 10:59 50.15058 165.05845 30895 ft 558 kts 44°
2026-05-07 11:00 50.19983 165.14970 30876 ft 542 kts 34°
2026-05-07 11:00 50.25509 165.22550 30862 ft 527 kts 26°
2026-05-07 11:01 50.31273 165.29635 30853 ft 526 kts 26°
2026-05-07 11:01 50.37031 165.36753 30848 ft 527 kts 26°
2026-05-07 11:02 50.42764 165.43935 30859 ft 527 kts 26°
2026-05-07 11:02 50.48492 165.51166 30878 ft 529 kts 27°
2026-05-07 11:03 50.54190 165.58390 30845 ft 529 kts 27°
2026-05-07 11:03 50.59911 165.65666 30838 ft 528 kts 27°
2026-05-07 11:04 50.65619 165.72942 30829 ft 527 kts 27°
2026-05-07 11:04 50.71317 165.80228 30829 ft 527 kts 27°
2026-05-07 11:05 50.77007 165.87524 30836 ft 526 kts 27°
2026-05-07 11:05 50.82690 165.94838 30822 ft 526 kts 27°
2026-05-07 11:06 50.88316 166.02102 30816 ft 525 kts 27°
2026-05-07 11:06 50.93981 166.09440 30816 ft 525 kts 28°
2026-05-07 11:07 50.99635 166.16784 30861 ft 525 kts 29°
2026-05-07 11:07 51.05288 166.24150 30818 ft 525 kts 29°
2026-05-07 11:08 51.10935 166.31537 30803 ft 525 kts 29°
2026-05-07 11:08 51.16539 166.38893 30806 ft 525 kts 29°
2026-05-07 11:09 51.22190 166.46332 30802 ft 525 kts 29°
2026-05-07 11:09 51.27818 166.53761 30853 ft 524 kts 29°
2026-05-07 11:10 51.33402 166.61102 30838 ft 524 kts 32°
2026-05-07 11:10 51.38948 166.68636 30808 ft 522 kts 31°
2026-05-07 11:11 51.44541 166.76061 30790 ft 521 kts 31°
2026-05-07 11:11 51.50126 166.83487 30791 ft 521 kts 31°
2026-05-07 11:12 51.55668 166.90908 30824 ft 521 kts 32°
2026-05-07 11:12 51.61219 166.98391 30784 ft 520 kts 32°
2026-05-07 11:13 51.66764 167.05878 30781 ft 519 kts 32°
2026-05-07 11:13 51.72289 167.13373 30781 ft 519 kts 33°
2026-05-07 11:14 51.77804 167.20880 30775 ft 518 kts 33°
2026-05-07 11:14 51.83310 167.28416 30811 ft 518 kts 34°
2026-05-07 11:15 51.88748 167.36082 30756 ft 517 kts 34°
2026-05-07 11:15 51.94255 167.43510 30761 ft 514 kts 34°
2026-05-07 11:16 51.99734 167.50955 30771 ft 513 kts 34°
2026-05-07 11:16 52.05138 167.58416 30767 ft 513 kts 35°
2026-05-07 11:17 52.10565 167.65961 30779 ft 513 kts 36°
2026-05-07 11:17 52.15990 167.73528 30750 ft 513 kts 36°
2026-05-07 11:18 52.21394 167.81069 30757 ft 511 kts 36°
2026-05-07 11:18 52.26785 167.88626 30761 ft 510 kts 36°
2026-05-07 11:19 52.32162 167.96195 30763 ft 510 kts 36°
2026-05-07 11:19 52.37534 168.03777 30770 ft 509 kts 37°
2026-05-07 11:20 52.42898 168.11370 30777 ft 509 kts 37°
2026-05-07 11:20 52.48250 168.18962 30759 ft 508 kts 37°
2026-05-07 11:21 52.53588 168.26572 30755 ft 508 kts 38°
2026-05-07 11:21 52.58889 168.34158 30754 ft 507 kts 38°
2026-05-07 11:22 52.64207 168.41792 30760 ft 507 kts 38°
2026-05-07 11:22 52.69519 168.49437 30764 ft 507 kts 38°
2026-05-07 11:23 52.74821 168.57095 30756 ft 506 kts 38°
2026-05-07 11:23 52.80110 168.64762 30752 ft 505 kts 39°
2026-05-07 11:24 52.85386 168.72437 30749 ft 505 kts 39°
2026-05-07 11:24 52.90618 168.80071 30751 ft 505 kts 39°
2026-05-07 11:25 52.95877 168.87764 30746 ft 504 kts 39°
2026-05-07 11:25 53.01126 168.95484 30756 ft 504 kts 39°
2026-05-07 11:26 53.06369 169.03205 30746 ft 504 kts 39°
2026-05-07 11:26 53.11609 169.10955 30744 ft 503 kts 40°
2026-05-07 11:27 53.16843 169.18725 30743 ft 503 kts 40°
2026-05-07 11:27 53.22065 169.26505 30745 ft 503 kts 40°
2026-05-07 11:28 53.27245 169.34247 30745 ft 502 kts 40°
2026-05-07 11:28 53.32465 169.42055 30744 ft 502 kts 40°
2026-05-07 11:29 53.37627 169.49824 30741 ft 501 kts 41°
2026-05-07 11:29 53.42807 169.57650 30739 ft 501 kts 41°
2026-05-07 11:30 53.47990 169.65505 30735 ft 501 kts 41°
2026-05-07 11:30 53.53157 169.73359 30738 ft 501 kts 41°
2026-05-07 11:31 53.58321 169.81235 30742 ft 501 kts 41°
2026-05-07 11:31 53.63481 169.89131 30734 ft 501 kts 41°
2026-05-07 11:32 53.71210 170.01012 30741 ft 501 kts 41°
2026-05-07 11:33 53.76326 170.08910 30732 ft 501 kts 41°
2026-05-07 11:33 53.81473 170.16882 30735 ft 501 kts 41°
2026-05-07 11:34 53.86616 170.24877 30743 ft 501 kts 42°
2026-05-07 11:34 53.91751 170.32884 30737 ft 502 kts 42°
2026-05-07 11:35 53.96889 170.40926 30733 ft 502 kts 42°
2026-05-07 11:35 54.02015 170.48978 30723 ft 502 kts 43°
2026-05-07 11:36 54.07134 170.57046 30739 ft 501 kts 43°
2026-05-07 11:36 54.12207 170.65067 30722 ft 500 kts 43°
2026-05-07 11:37 54.17294 170.73154 30738 ft 499 kts 43°
2026-05-07 11:37 54.22376 170.81243 30726 ft 499 kts 43°
2026-05-07 11:38 54.27447 170.89348 30740 ft 499 kts 43°
2026-05-07 11:38 54.32506 170.97472 30729 ft 498 kts 44°
2026-05-07 11:39 54.37558 171.05607 30725 ft 497 kts 44°
2026-05-07 11:39 54.42594 171.13735 30731 ft 496 kts 44°
2026-05-07 11:40 54.47583 171.21825 30735 ft 496 kts 44°
2026-05-07 11:40 54.52598 171.29993 30732 ft 496 kts 44°
2026-05-07 11:41 54.57616 171.38188 30729 ft 496 kts 45°
2026-05-07 11:41 54.62626 171.46401 30731 ft 496 kts 45°
2026-05-07 11:42 54.67628 171.54627 30740 ft 496 kts 45°
2026-05-07 11:42 54.72588 171.62816 30743 ft 496 kts 45°
2026-05-07 11:43 54.77579 171.71087 30745 ft 496 kts 45°
2026-05-07 11:43 54.82561 171.79371 30748 ft 496 kts 45°
2026-05-07 11:44 54.87536 171.87677 30748 ft 495 kts 46°
2026-05-07 11:44 54.92505 171.95991 30752 ft 495 kts 46°
2026-05-07 11:45 54.96673 172.02820 30751 ft 495 kts 44°
2026-05-07 11:45 55.01796 172.10849 30756 ft 495 kts 44°
2026-05-07 11:46 55.06922 172.18866 30755 ft 495 kts 44°
2026-05-07 11:46 55.12031 172.26948 30755 ft 495 kts 44°
2026-05-07 11:47 55.17116 172.35052 30750 ft 494 kts 45°
2026-05-07 11:47 55.22186 172.43169 30756 ft 494 kts 45°
2026-05-07 11:48 55.27215 172.51248 30770 ft 493 kts 45°
2026-05-07 11:48 55.32265 172.59394 30772 ft 493 kts 45°
2026-05-07 11:49 55.37312 172.67562 30769 ft 493 kts 45°
2026-05-07 11:49 55.42352 172.75747 30773 ft 493 kts 45°
2026-05-07 11:50 55.47381 172.83949 30763 ft 492 kts 46°
2026-05-07 11:50 55.52404 172.92156 30781 ft 491 kts 46°
2026-05-07 11:51 55.57416 173.00381 30784 ft 491 kts 46°
2026-05-07 11:51 55.62417 173.08624 30787 ft 491 kts 46°
2026-05-07 11:52 55.67374 173.16824 30788 ft 491 kts 46°
2026-05-07 11:52 55.72361 173.25102 30793 ft 491 kts 47°
2026-05-07 11:53 55.77334 173.33381 30780 ft 489 kts 47°
2026-05-07 11:53 55.82291 173.41671 30800 ft 489 kts 47°
2026-05-07 11:54 55.87240 173.49978 30801 ft 489 kts 47°
2026-05-07 11:54 55.92178 173.58293 30796 ft 488 kts 48°
2026-05-07 11:55 55.97103 173.66621 30816 ft 488 kts 48°
2026-05-07 11:55 56.02021 173.74965 30814 ft 487 kts 48°
2026-05-07 11:56 56.06903 173.83285 30790 ft 487 kts 49°
2026-05-07 11:56 56.11804 173.91662 30812 ft 487 kts 49°
2026-05-07 11:57 56.16702 174.00052 30817 ft 487 kts 49°
2026-05-07 11:57 56.21586 174.08463 30837 ft 485 kts 50°
2026-05-07 11:58 56.26417 174.16826 30826 ft 485 kts 50°
2026-05-07 11:58 56.31284 174.25251 30826 ft 485 kts 50°
2026-05-07 11:59 56.36133 174.33694 30828 ft 484 kts 51°
2026-05-07 11:59 56.40969 174.42154 30827 ft 483 kts 51°
2026-05-07 12:00 56.45788 174.50614 30833 ft 483 kts 51°
2026-05-07 12:00 56.50577 174.59048 30831 ft 483 kts 51°
2026-05-07 12:01 56.55388 174.67551 30843 ft 483 kts 51°
2026-05-07 12:01 56.60199 174.76086 30841 ft 483 kts 51°
2026-05-07 12:02 56.65003 174.84641 30846 ft 483 kts 51°
2026-05-07 12:02 56.69796 174.93209 30859 ft 483 kts 51°
2026-05-07 12:03 56.74555 175.01748 30828 ft 483 kts 52°
2026-05-07 12:03 56.79325 175.10334 30857 ft 481 kts 52°
2026-05-07 12:04 56.84080 175.18932 30869 ft 480 kts 52°
2026-05-07 12:04 56.88821 175.27538 30873 ft 480 kts 52°
2026-05-07 12:05 56.93546 175.36144 30877 ft 478 kts 52°
2026-05-07 12:05 56.98243 175.44735 30882 ft 479 kts 52°
2026-05-07 12:06 57.02949 175.53376 30892 ft 479 kts 52°
2026-05-07 12:06 57.07662 175.62057 30885 ft 479 kts 52°
2026-05-07 12:07 57.12367 175.70760 30898 ft 479 kts 52°
2026-05-07 12:07 57.17068 175.79488 30904 ft 480 kts 52°
2026-05-07 12:08 57.21737 175.88190 30890 ft 480 kts 52°
2026-05-07 12:08 57.26432 175.96974 30913 ft 480 kts 52°
2026-05-07 12:09 57.31132 176.05802 30915 ft 481 kts 52°
2026-05-07 12:09 57.35789 176.14581 30913 ft 480 kts 52°
2026-05-07 12:10 57.40467 176.23435 30925 ft 480 kts 53°
2026-05-07 12:10 57.45136 176.32309 30937 ft 480 kts 53°
2026-05-07 12:11 57.49798 176.41197 30900 ft 480 kts 53°
2026-05-07 12:11 57.54453 176.49987 30931 ft 480 kts 52°
2026-05-07 12:12 57.59159 176.58806 30957 ft 480 kts 52°
2026-05-07 12:12 57.63860 176.67655 30944 ft 479 kts 52°
2026-05-07 12:13 57.68541 176.76519 30958 ft 479 kts 52°
2026-05-07 12:13 57.73216 176.85417 30965 ft 479 kts 52°
2026-05-07 12:14 57.77886 176.94343 30964 ft 479 kts 52°
2026-05-07 12:14 57.82519 177.03235 30976 ft 479 kts 52°
2026-05-07 12:15 57.87172 177.12189 30977 ft 479 kts 52°
2026-05-07 12:15 57.91824 177.21174 30972 ft 479 kts 52°
2026-05-07 12:16 57.96470 177.30194 30993 ft 480 kts 52°
2026-05-07 12:16 58.01115 177.39251 30992 ft 480 kts 52°
2026-05-07 12:17 58.05684 177.48190 30991 ft 480 kts 52°
2026-05-07 12:17 58.10321 177.57309 30964 ft 480 kts 52°
2026-05-07 12:18 58.14949 177.66426 30993 ft 480 kts 52°
2026-05-07 12:18 58.19570 177.75556 30991 ft 479 kts 52°
2026-05-07 12:19 58.24166 177.84697 31019 ft 479 kts 52°
2026-05-07 12:19 58.28736 177.93827 31022 ft 479 kts 52°
2026-05-07 12:20 58.33325 178.03027 31025 ft 479 kts 52°
2026-05-07 12:20 58.37910 178.12253 31030 ft 479 kts 52°
2026-05-07 12:21 58.42458 178.21432 31003 ft 479 kts 52°
2026-05-07 12:21 58.47019 178.30689 31010 ft 478 kts 52°
2026-05-07 12:22 58.51586 178.39985 31034 ft 479 kts 52°
2026-05-07 12:22 58.56147 178.49315 31038 ft 480 kts 52°
2026-05-07 12:23 58.60707 178.58682 31050 ft 480 kts 52°
2026-05-07 12:23 58.65237 178.68022 31049 ft 481 kts 52°
2026-05-07 12:24 58.69788 178.77443 31039 ft 481 kts 52°
2026-05-07 12:24 58.74332 178.86885 31056 ft 480 kts 52°
2026-05-07 12:25 58.78865 178.96347 31050 ft 480 kts 52°
2026-05-07 12:25 58.83383 179.05818 31065 ft 479 kts 52°
2026-05-07 12:26 58.87897 179.15318 31070 ft 479 kts 52°
2026-05-07 12:26 58.92364 179.24759 31075 ft 479 kts 52°
2026-05-07 12:27 58.96859 179.34299 31074 ft 478 kts 52°
2026-05-07 12:27 59.01335 179.43847 31064 ft 478 kts 52°
2026-05-07 12:28 59.05810 179.53413 31074 ft 477 kts 52°
2026-05-07 12:28 59.10240 179.62929 31084 ft 477 kts 52°
2026-05-07 12:29 59.14688 179.72529 31088 ft 477 kts 52°
2026-05-07 12:29 59.19130 179.82159 31088 ft 477 kts 52°
2026-05-07 12:30 59.23569 179.91819 31091 ft 478 kts 52°
2026-05-07 12:30 59.27997 -179.98504 31098 ft 478 kts 52°
2026-05-07 12:31 59.32395 -179.88852 31101 ft 477 kts 52°
2026-05-07 12:31 59.36812 -179.79119 31103 ft 478 kts 52°
2026-05-07 12:32 59.41220 -179.69364 31106 ft 478 kts 52°
2026-05-07 12:32 59.45627 -179.59567 31106 ft 478 kts 52°
2026-05-07 12:33 59.52217 -179.44842 31117 ft 478 kts 52°
2026-05-07 12:33 59.56580 -179.35041 31118 ft 478 kts 52°
2026-05-07 12:34 59.60954 -179.25172 31115 ft 477 kts 52°
2026-05-07 12:34 59.65319 -179.15280 31125 ft 477 kts 52°
2026-05-07 12:35 59.68938 -179.07047 31127 ft 476 kts 52°
2026-05-07 12:35 59.73990 -178.95505 31128 ft 476 kts 52°
2026-05-07 12:36 59.77623 -178.87170 31133 ft 476 kts 52°
2026-05-07 12:36 59.81944 -178.77214 31134 ft 476 kts 52°
2026-05-07 12:37 59.86257 -178.67233 31128 ft 476 kts 52°
2026-05-07 12:37 59.90527 -178.57310 31129 ft 475 kts 52°
2026-05-07 12:38 59.94824 -178.47284 31144 ft 474 kts 52°
2026-05-07 12:38 59.99100 -178.37260 31151 ft 474 kts 52°
2026-05-07 12:39 60.03362 -178.27225 31146 ft 473 kts 52°
2026-05-07 12:39 60.07615 -178.17165 31163 ft 473 kts 52°
2026-05-07 12:40 60.11829 -178.07157 31164 ft 473 kts 52°
2026-05-07 12:40 60.16070 -177.97041 31149 ft 473 kts 52°
2026-05-07 12:41 60.20492 -177.87240 31155 ft 475 kts 45°
2026-05-07 12:41 60.25589 -177.78746 31168 ft 476 kts 41°
2026-05-07 12:42 60.30749 -177.70359 31165 ft 476 kts 41°
2026-05-07 12:42 60.35884 -177.61912 31169 ft 476 kts 42°
2026-05-07 12:43 60.41009 -177.53392 31171 ft 476 kts 42°
2026-05-07 12:43 60.46086 -177.44897 31168 ft 476 kts 43°
2026-05-07 12:44 60.51182 -177.36330 31180 ft 475 kts 43°
2026-05-07 12:44 60.56270 -177.27745 31171 ft 475 kts 42°
2026-05-07 12:45 60.61341 -177.19153 31179 ft 474 kts 42°
2026-05-07 12:45 60.66403 -177.10541 31181 ft 473 kts 43°
2026-05-07 12:46 60.71453 -177.01912 31182 ft 473 kts 43°
2026-05-07 12:46 60.76467 -176.93309 31183 ft 473 kts 43°
2026-05-07 12:47 60.81499 -176.84637 31188 ft 473 kts 43°
2026-05-07 12:47 60.86535 -176.75924 31191 ft 473 kts 43°
2026-05-07 12:48 60.91564 -176.67183 31197 ft 473 kts 43°
2026-05-07 12:48 60.96591 -176.58410 31196 ft 474 kts 43°
2026-05-07 12:49 61.01606 -176.49613 31199 ft 473 kts 42°
2026-05-07 12:49 61.06612 -176.40820 31186 ft 472 kts 42°
2026-05-07 12:50 61.11586 -176.32024 31199 ft 470 kts 42°
2026-05-07 12:50 61.16546 -176.23210 31198 ft 469 kts 42°
2026-05-07 12:51 61.21460 -176.14443 31199 ft 469 kts 42°
2026-05-07 12:51 61.26404 -176.05588 31199 ft 469 kts 43°
2026-05-07 12:52 61.31341 -175.96709 31212 ft 468 kts 43°
2026-05-07 12:52 61.36267 -175.87815 31198 ft 468 kts 43°
2026-05-07 12:53 61.41184 -175.78895 31211 ft 468 kts 43°
2026-05-07 12:53 61.46081 -175.69968 31210 ft 467 kts 42°
2026-05-07 12:54 61.50937 -175.61092 31201 ft 466 kts 42°
2026-05-07 12:54 61.55805 -175.52141 31201 ft 465 kts 42°
2026-05-07 12:55 61.60665 -175.43175 31205 ft 464 kts 42°
2026-05-07 12:55 61.65499 -175.34204 31203 ft 463 kts 42°
2026-05-07 12:56 61.70325 -175.25223 31208 ft 462 kts 42°
2026-05-07 12:56 61.75145 -175.16206 31207 ft 462 kts 42°
2026-05-07 12:57 61.79918 -175.07236 31207 ft 462 kts 42°
2026-05-07 12:57 61.84724 -174.98167 31220 ft 463 kts 41°
2026-05-07 12:58 61.89519 -174.89065 31207 ft 462 kts 41°
2026-05-07 12:58 61.94309 -174.79995 31207 ft 460 kts 41°
2026-05-07 12:59 61.99036 -174.70947 31210 ft 459 kts 41°
2026-05-07 12:59 62.03780 -174.61826 31209 ft 459 kts 41°
2026-05-07 13:00 62.08517 -174.52689 31213 ft 459 kts 41°
2026-05-07 13:00 62.13242 -174.43537 31213 ft 459 kts 42°
2026-05-07 13:01 62.17969 -174.34343 31213 ft 459 kts 42°
2026-05-07 13:01 62.22700 -174.25100 31213 ft 460 kts 42°
2026-05-07 13:02 62.27393 -174.15890 31229 ft 460 kts 41°
2026-05-07 13:02 62.32116 -174.06582 31212 ft 459 kts 41°
2026-05-07 13:03 62.36715 -173.97478 31212 ft 456 kts 41°
2026-05-07 13:03 62.41347 -173.88267 31223 ft 456 kts 41°
2026-05-07 13:04 62.46016 -173.78945 31210 ft 458 kts 41°
2026-05-07 13:04 62.50696 -173.69554 31222 ft 458 kts 41°
2026-05-07 13:05 62.55365 -173.60137 31218 ft 459 kts 41°
2026-05-07 13:05 62.60034 -173.50682 31219 ft 459 kts 41°
2026-05-07 13:06 62.64695 -173.41202 31223 ft 458 kts 41°
2026-05-07 13:06 62.69347 -173.31700 31249 ft 458 kts 41°
2026-05-07 13:07 62.73949 -173.22261 31236 ft 457 kts 41°
2026-05-07 13:07 62.78570 -173.12733 31223 ft 456 kts 41°
2026-05-07 13:08 62.83167 -173.03208 31218 ft 454 kts 41°
2026-05-07 13:08 62.87751 -172.93671 31224 ft 454 kts 41°
2026-05-07 13:09 62.92321 -172.84123 31224 ft 454 kts 41°
2026-05-07 13:09 62.96886 -172.74542 31236 ft 454 kts 41°
2026-05-07 13:10 63.01461 -172.64894 31227 ft 455 kts 41°
2026-05-07 13:10 63.05996 -172.55288 31232 ft 455 kts 41°
2026-05-07 13:11 63.10554 -172.45588 31227 ft 455 kts 41°
2026-05-07 13:11 63.15105 -172.35860 31225 ft 455 kts 41°
2026-05-07 13:12 63.19657 -172.26081 31232 ft 455 kts 41°
2026-05-07 13:12 63.24192 -172.16292 31246 ft 454 kts 41°
2026-05-07 13:13 63.28685 -172.06555 31236 ft 454 kts 41°
2026-05-07 13:13 63.33203 -171.96719 31232 ft 454 kts 41°
2026-05-07 13:14 63.37716 -171.86846 31236 ft 453 kts 41°
2026-05-07 13:14 63.42210 -171.76967 31240 ft 453 kts 41°
2026-05-07 13:15 63.46700 -171.67053 31249 ft 453 kts 41°
2026-05-07 13:15 63.51160 -171.57157 31260 ft 454 kts 41°
2026-05-07 13:16 63.55641 -171.47169 31256 ft 454 kts 41°
2026-05-07 13:16 63.60115 -171.37151 31254 ft 454 kts 41°
2026-05-07 13:17 63.64587 -171.27090 31250 ft 454 kts 41°
2026-05-07 13:17 63.69021 -171.17066 31249 ft 454 kts 41°
2026-05-07 13:18 63.73470 -171.06958 31253 ft 454 kts 41°
2026-05-07 13:18 63.77912 -170.96820 31267 ft 454 kts 41°
2026-05-07 13:19 63.82353 -170.86638 31250 ft 454 kts 41°
2026-05-07 13:19 63.86783 -170.76433 31251 ft 454 kts 41°
2026-05-07 13:20 63.91208 -170.66188 31249 ft 454 kts 41°
2026-05-07 13:20 63.95622 -170.55921 31276 ft 454 kts 41°
2026-05-07 13:21 64.00009 -170.45669 31264 ft 455 kts 41°
2026-05-07 13:21 64.04418 -170.35312 31258 ft 455 kts 41°
2026-05-07 13:22 64.08821 -170.24921 31245 ft 455 kts 41°
2026-05-07 13:22 64.12474 -170.16262 31243 ft 455 kts 41°
2026-05-07 13:23 64.16857 -170.05827 31264 ft 454 kts 42°
2026-05-07 13:23 64.21234 -169.95354 31250 ft 454 kts 42°
2026-05-07 13:24 64.25603 -169.84849 31250 ft 454 kts 42°
2026-05-07 13:24 64.29968 -169.74304 31248 ft 455 kts 42°
2026-05-07 13:25 64.34322 -169.63731 31257 ft 455 kts 42°
2026-05-07 13:25 64.38678 -169.53104 31258 ft 455 kts 42°
2026-05-07 13:26 64.42997 -169.42514 31253 ft 455 kts 42°
2026-05-07 13:26 64.47337 -169.31818 31256 ft 454 kts 42°
2026-05-07 13:27 64.51665 -169.21098 31255 ft 454 kts 42°
2026-05-07 13:27 64.55946 -169.10444 31257 ft 454 kts 42°
2026-05-07 13:28 64.60249 -168.99684 31274 ft 454 kts 42°
2026-05-07 13:28 64.64546 -168.88883 31258 ft 454 kts 42°
2026-05-07 13:29 64.68828 -168.78064 31254 ft 453 kts 43°
2026-05-07 13:29 64.73105 -168.67206 31256 ft 453 kts 43°
2026-05-07 13:30 64.77336 -168.56409 31293 ft 453 kts 43°
2026-05-07 13:30 64.81585 -168.45505 31267 ft 451 kts 42°
2026-05-07 13:31 64.85771 -168.34725 31267 ft 449 kts 42°
2026-05-07 13:31 64.89963 -168.23867 31366 ft 449 kts 43°
2026-05-07 13:32 64.94179 -168.12934 31453 ft 449 kts 40°
2026-05-07 13:32 64.96534 -168.08193 31493 ft 442 kts 29°
2026-05-07 13:32 64.99151 -168.04640 31562 ft 438 kts 22°
2026-05-07 13:33 65.04897 -168.00260 31655 ft 433 kts
2026-05-07 13:33 65.10822 -167.97487 31768 ft 435 kts
2026-05-07 13:34 65.19745 -167.93214 31951 ft 436 kts
2026-05-07 13:35 65.25693 -167.90279 32055 ft 436 kts
2026-05-07 13:35 65.31633 -167.87314 32161 ft 436 kts
2026-05-07 13:36 65.37571 -167.84334 32254 ft 436 kts
2026-05-07 13:36 65.43518 -167.81336 32359 ft 436 kts
2026-05-07 13:37 65.49460 -167.78328 32483 ft 437 kts
2026-05-07 13:37 65.55375 -167.75320 32588 ft 437 kts
2026-05-07 13:38 65.61329 -167.72279 32700 ft 438 kts
2026-05-07 13:38 65.67295 -167.69216 32809 ft 439 kts
2026-05-07 13:39 65.73274 -167.66133 32917 ft 440 kts
2026-05-07 13:39 65.79272 -167.63025 33048 ft 440 kts
2026-05-07 13:40 65.85275 -167.59900 33179 ft 442 kts
2026-05-07 13:40 65.91300 -167.56748 33238 ft 439 kts
2026-05-07 13:41 65.97118 -167.53681 33249 ft 424 kts
2026-05-07 13:41 66.02889 -167.50635 33263 ft 424 kts
2026-05-07 13:42 66.08660 -167.47578 33277 ft 425 kts
2026-05-07 13:42 66.14451 -167.44493 33271 ft 426 kts
2026-05-07 13:43 66.20247 -167.41389 33261 ft 426 kts
2026-05-07 13:43 66.25999 -167.38294 33262 ft 425 kts
2026-05-07 13:44 66.31788 -167.35165 33260 ft 425 kts
2026-05-07 13:44 66.37572 -167.32023 33261 ft 425 kts
2026-05-07 13:45 66.43348 -167.28872 33271 ft 425 kts 10°
2026-05-07 13:45 66.49124 -167.25705 33265 ft 425 kts 10°
2026-05-07 13:46 66.54893 -167.22527 33267 ft 424 kts 10°
2026-05-07 13:46 66.60662 -167.19334 33266 ft 424 kts 10°
2026-05-07 13:47 66.66387 -167.16151 33266 ft 424 kts 10°
2026-05-07 13:47 66.72188 -167.12909 33273 ft 424 kts 10°
2026-05-07 13:48 66.77928 -167.09686 33256 ft 424 kts 10°
2026-05-07 13:48 66.83698 -167.06431 33254 ft 424 kts 10°
2026-05-07 13:49 66.89469 -167.03159 33271 ft 424 kts 10°
2026-05-07 13:49 66.95207 -166.99891 33272 ft 424 kts 10°
2026-05-07 13:50 67.00973 -166.96590 33268 ft 424 kts 10°
2026-05-07 13:50 67.06744 -166.93272 33265 ft 425 kts 11°
2026-05-07 13:51 67.12515 -166.89936 33270 ft 425 kts 11°
2026-05-07 13:51 67.18288 -166.86582 33268 ft 425 kts 11°
2026-05-07 13:52 67.24019 -166.83237 33265 ft 425 kts 11°
2026-05-07 13:52 67.29787 -166.79853 33261 ft 425 kts 11°
2026-05-07 13:53 67.35559 -166.76451 33273 ft 425 kts 11°
2026-05-07 13:53 67.41325 -166.73035 33264 ft 425 kts 11°
2026-05-07 13:54 67.47102 -166.69596 33270 ft 425 kts 11°
2026-05-07 13:54 67.52838 -166.66163 33262 ft 425 kts 11°
2026-05-07 13:55 67.58613 -166.62691 33269 ft 425 kts 11°
2026-05-07 13:55 67.64392 -166.59199 33268 ft 425 kts 11°
2026-05-07 13:56 67.70165 -166.55692 33260 ft 426 kts 11°
2026-05-07 13:56 67.75952 -166.52159 33266 ft 426 kts 11°
2026-05-07 13:57 67.81690 -166.48639 33266 ft 426 kts 11°
2026-05-07 13:57 67.87473 -166.45072 33265 ft 426 kts 11°
2026-05-07 13:58 67.93253 -166.41490 33262 ft 426 kts 11°
2026-05-07 13:58 67.99030 -166.37891 33266 ft 426 kts 11°
2026-05-07 13:59 68.04810 -166.34271 33262 ft 426 kts 11°
2026-05-07 13:59 68.10588 -166.30635 33266 ft 426 kts 11°
2026-05-07 14:00 68.16366 -166.26979 33266 ft 426 kts 11°
2026-05-07 14:00 68.22134 -166.23311 33269 ft 426 kts 11°
2026-05-07 14:01 68.27875 -166.19641 33274 ft 426 kts 11°
2026-05-07 14:01 68.33647 -166.15932 33277 ft 427 kts 11°
2026-05-07 14:02 68.39420 -166.12202 33270 ft 427 kts 12°
2026-05-07 14:02 68.45195 -166.08453 33264 ft 427 kts 12°
2026-05-07 14:03 68.50969 -166.04684 33264 ft 426 kts 12°
2026-05-07 14:03 68.56739 -166.00897 33268 ft 426 kts 12°
2026-05-07 14:04 68.62480 -165.97111 33289 ft 426 kts 12°
2026-05-07 14:04 68.68245 -165.93288 33277 ft 426 kts 12°
2026-05-07 14:05 68.74010 -165.89444 33266 ft 426 kts 12°
2026-05-07 14:05 68.79771 -165.85590 33276 ft 425 kts 12°
2026-05-07 14:06 68.85528 -165.81704 33271 ft 425 kts 12°
2026-05-07 14:06 68.91237 -165.77832 33272 ft 425 kts 12°
2026-05-07 14:07 68.96995 -165.73912 33277 ft 425 kts 12°
2026-05-07 14:07 69.02736 -165.69983 33270 ft 424 kts 12°
2026-05-07 14:08 69.08433 -165.66061 33271 ft 424 kts 12°
2026-05-07 14:08 69.14163 -165.62095 33272 ft 424 kts 12°
2026-05-07 14:09 69.19892 -165.58109 33276 ft 424 kts 12°
2026-05-07 14:09 69.25624 -165.54099 33276 ft 424 kts 12°
2026-05-07 14:10 69.31352 -165.50069 33277 ft 425 kts 12°
2026-05-07 14:10 69.37086 -165.46013 33270 ft 425 kts 12°
2026-05-07 14:11 69.42819 -165.41935 33270 ft 425 kts 12°
2026-05-07 14:11 69.47592 -165.38524 33273 ft 425 kts 12°
2026-05-07 14:12 69.53327 -165.34403 33269 ft 425 kts 12°
2026-05-07 14:12 69.59062 -165.30260 33269 ft 425 kts 12°
2026-05-07 14:13 69.64814 -165.26081 33272 ft 425 kts 12°
2026-05-07 14:13 69.70519 -165.21914 33273 ft 425 kts 12°
2026-05-07 14:14 69.76255 -165.17700 33267 ft 426 kts 12°
2026-05-07 14:14 69.82002 -165.13454 33267 ft 426 kts 12°
2026-05-07 14:15 69.87742 -165.09190 33273 ft 426 kts 12°
2026-05-07 14:15 69.93453 -165.04924 33281 ft 426 kts 12°
2026-05-07 14:16 69.99202 -165.00679 33277 ft 425 kts 10°
2026-05-07 14:16 70.05049 -164.98313 33276 ft 424 kts
2026-05-07 14:17 70.10921 -164.96605 33274 ft 424 kts
2026-05-07 14:17 70.16796 -164.94863 33274 ft 424 kts
2026-05-07 14:18 70.22675 -164.93072 33263 ft 424 kts
2026-05-07 14:18 70.28548 -164.91235 33226 ft 425 kts
2026-05-07 14:19 70.34386 -164.89437 33272 ft 425 kts
2026-05-07 14:19 70.40279 -164.87592 33282 ft 426 kts
2026-05-07 14:20 70.46182 -164.85724 33283 ft 427 kts
2026-05-07 14:20 70.52097 -164.83843 33281 ft 427 kts
2026-05-07 14:21 70.58011 -164.81954 33280 ft 427 kts
2026-05-07 14:21 70.63888 -164.80067 33287 ft 428 kts
2026-05-07 14:22 70.69809 -164.78154 33282 ft 427 kts
2026-05-07 14:22 70.75723 -164.76231 33279 ft 427 kts
2026-05-07 14:23 70.81637 -164.74298 33282 ft 427 kts
2026-05-07 14:23 70.87551 -164.72353 33282 ft 427 kts
2026-05-07 14:24 70.93458 -164.70399 33282 ft 426 kts
2026-05-07 14:24 70.99331 -164.68444 33289 ft 427 kts
2026-05-07 14:25 71.05242 -164.66465 33288 ft 427 kts
2026-05-07 14:25 71.11155 -164.64474 33293 ft 427 kts
2026-05-07 14:26 71.17072 -164.62468 33293 ft 428 kts
2026-05-07 14:26 71.22983 -164.60453 33290 ft 428 kts
2026-05-07 14:27 71.28904 -164.58421 33293 ft 428 kts
2026-05-07 14:27 71.34818 -164.56380 33288 ft 428 kts
2026-05-07 14:28 71.40749 -164.54320 33297 ft 428 kts
2026-05-07 14:28 71.46668 -164.52251 33292 ft 428 kts
2026-05-07 14:29 71.52551 -164.50183 33299 ft 428 kts
2026-05-07 14:29 71.58468 -164.48089 33295 ft 428 kts
2026-05-07 14:30 71.64399 -164.45975 33303 ft 428 kts
2026-05-07 14:30 71.70286 -164.43867 33303 ft 428 kts
2026-05-07 14:31 71.76223 -164.41729 33290 ft 429 kts
2026-05-07 14:31 71.82167 -164.39572 33297 ft 429 kts
2026-05-07 14:32 71.88106 -164.37403 33302 ft 430 kts
2026-05-07 14:32 71.94019 -164.35230 33310 ft 430 kts
2026-05-07 14:33 71.99967 -164.33028 33316 ft 430 kts
2026-05-07 14:33 72.05930 -164.30810 33312 ft 431 kts
2026-05-07 14:34 72.11902 -164.28574 33308 ft 432 kts
2026-05-07 14:34 72.17872 -164.26323 33308 ft 432 kts
2026-05-07 14:35 72.23812 -164.24068 33310 ft 432 kts
2026-05-07 14:35 72.29791 -164.21783 33307 ft 432 kts
2026-05-07 14:36 72.35772 -164.19439 33305 ft 432 kts
2026-05-07 14:36 72.41743 -164.17095 33352 ft 431 kts
2026-05-07 14:37 72.47686 -164.14834 33319 ft 433 kts
2026-05-07 14:37 72.56691 -164.11328 33317 ft 435 kts
2026-05-07 14:38 72.62711 -164.08939 33319 ft 436 kts
2026-05-07 14:38 72.68737 -164.06530 33346 ft 436 kts
2026-05-07 14:39 72.74749 -164.04115 33323 ft 437 kts
2026-05-07 14:39 72.80813 -164.01663 33319 ft 438 kts
2026-05-07 14:40 72.86873 -163.99195 33320 ft 439 kts
2026-05-07 14:40 72.92944 -163.96705 33317 ft 439 kts
2026-05-07 14:41 72.98971 -163.94216 33319 ft 439 kts
2026-05-07 14:41 73.05042 -163.91690 33326 ft 440 kts
2026-05-07 14:42 73.11125 -163.89146 33328 ft 441 kts
2026-05-07 14:42 73.17235 -163.86572 33323 ft 442 kts
2026-05-07 14:43 73.23357 -163.83972 33321 ft 443 kts
2026-05-07 14:43 73.29453 -163.81363 33321 ft 444 kts
2026-05-07 14:44 73.35589 -163.78719 33320 ft 444 kts
2026-05-07 14:44 73.41732 -163.76054 33325 ft 446 kts
2026-05-07 14:45 73.47894 -163.73363 33324 ft 447 kts
2026-05-07 14:45 73.54087 -163.70637 33322 ft 449 kts
2026-05-07 14:46 73.60296 -163.67882 33321 ft 450 kts
2026-05-07 14:46 73.66473 -163.65121 33321 ft 450 kts
2026-05-07 14:47 73.72696 -163.62318 33320 ft 450 kts
2026-05-07 14:47 73.78934 -163.59491 33333 ft 452 kts
2026-05-07 14:48 73.85206 -163.56627 33321 ft 455 kts
2026-05-07 14:48 73.91410 -163.53770 33321 ft 456 kts
2026-05-07 14:49 73.97718 -163.50841 33322 ft 457 kts
2026-05-07 14:49 74.04039 -163.47884 33326 ft 458 kts
2026-05-07 14:50 74.10415 -163.44886 33342 ft 466 kts
2026-05-07 14:50 74.16868 -163.41826 33333 ft 473 kts
2026-05-07 14:51 74.23417 -163.38686 33325 ft 475 kts
2026-05-07 14:51 74.29980 -163.35511 33322 ft 476 kts
2026-05-07 14:52 74.36535 -163.32315 33321 ft 474 kts
2026-05-07 14:52 74.43067 -163.29107 33321 ft 473 kts
2026-05-07 14:53 74.49586 -163.25872 33343 ft 472 kts
2026-05-07 14:53 74.56111 -163.22620 33329 ft 473 kts
2026-05-07 14:54 74.62638 -163.19353 33334 ft 474 kts
2026-05-07 14:54 74.69176 -163.16036 33331 ft 475 kts
2026-05-07 14:55 74.75710 -163.12686 33329 ft 476 kts
2026-05-07 14:55 74.82280 -163.09292 33329 ft 476 kts
2026-05-07 14:56 74.88859 -163.05868 33330 ft 476 kts
2026-05-07 14:56 74.95431 -163.02418 33328 ft 476 kts
2026-05-07 14:57 75.01961 -162.99019 33328 ft 475 kts
2026-05-07 14:57 75.08526 -162.96284 33329 ft 474 kts
2026-05-07 14:58 75.15099 -162.93765 33328 ft 474 kts
2026-05-07 14:58 75.21677 -162.91156 33336 ft 476 kts
2026-05-07 14:59 75.28277 -162.88440 33338 ft 477 kts
2026-05-07 14:59 75.34898 -162.85662 33334 ft 479 kts
2026-05-07 15:00 75.41486 -162.82870 33335 ft 479 kts
2026-05-07 15:00 75.48128 -162.80034 33334 ft 480 kts
2026-05-07 15:01 75.53688 -162.77641 33343 ft 480 kts
2026-05-07 15:01 75.60303 -162.74774 33337 ft 481 kts
2026-05-07 15:02 75.66964 -162.71860 33336 ft 482 kts
2026-05-07 15:02 75.73642 -162.68911 33336 ft 482 kts
2026-05-07 15:03 75.80321 -162.65933 33335 ft 482 kts
2026-05-07 15:03 75.86958 -162.62947 33333 ft 483 kts
2026-05-07 15:04 75.93683 -162.59894 33335 ft 484 kts
2026-05-07 15:04 76.00341 -162.56844 33335 ft 485 kts
2026-05-07 15:05 76.07048 -162.53740 33332 ft 485 kts
2026-05-07 15:05 76.13774 -162.50598 33330 ft 486 kts
2026-05-07 15:06 76.20493 -162.47429 33338 ft 486 kts
2026-05-07 15:06 76.27212 -162.44229 33353 ft 486 kts
2026-05-07 15:07 76.33946 -162.40993 33339 ft 487 kts
2026-05-07 15:07 76.40684 -162.37722 33332 ft 488 kts
2026-05-07 15:08 76.47442 -162.34408 33331 ft 488 kts
2026-05-07 15:08 76.54191 -162.31066 33332 ft 488 kts
2026-05-07 15:09 76.60905 -162.27708 33331 ft 488 kts
2026-05-07 15:09 76.67674 -162.24289 33337 ft 489 kts
2026-05-07 15:10 76.74451 -162.20834 33339 ft 490 kts
2026-05-07 15:10 76.81227 -162.17342 33337 ft 491 kts
2026-05-07 15:11 76.88011 -162.13810 33338 ft 491 kts
2026-05-07 15:11 76.94800 -162.10238 33334 ft 491 kts
2026-05-07 15:12 77.01549 -162.06652 33342 ft 492 kts
2026-05-07 15:12 77.08361 -162.02995 33332 ft 492 kts
2026-05-07 15:13 77.15166 -161.99303 33334 ft 492 kts
2026-05-07 15:13 77.21976 -161.95569 33332 ft 492 kts
2026-05-07 15:14 77.28737 -161.91822 33337 ft 492 kts
2026-05-07 15:14 77.35540 -161.88013 33360 ft 492 kts
2026-05-07 15:15 77.42348 -161.84161 33337 ft 493 kts
2026-05-07 15:15 77.49161 -161.80263 33336 ft 493 kts
2026-05-07 15:16 77.55974 -161.76323 33337 ft 493 kts
2026-05-07 15:16 77.62795 -161.72335 33335 ft 494 kts
2026-05-07 15:17 77.69567 -161.68333 33333 ft 494 kts
2026-05-07 15:17 77.76387 -161.64258 33340 ft 494 kts
2026-05-07 15:18 77.83224 -161.60127 33333 ft 495 kts
2026-05-07 15:18 77.90063 -161.55949 33334 ft 495 kts
2026-05-07 15:19 77.96854 -161.51753 33335 ft 495 kts
2026-05-07 15:19 78.03690 -161.47481 33334 ft 495 kts
2026-05-07 15:20 78.10523 -161.43163 33351 ft 495 kts
2026-05-07 15:20 78.17355 -161.38797 33340 ft 495 kts
2026-05-07 15:21 78.24196 -161.34373 33331 ft 496 kts
2026-05-07 15:21 78.31005 -161.29920 33334 ft 496 kts
2026-05-07 15:22 78.37857 -161.25384 33333 ft 496 kts
2026-05-07 15:22 78.44708 -161.20797 33340 ft 496 kts
2026-05-07 15:23 78.51559 -161.16155 33333 ft 497 kts
2026-05-07 15:23 78.58372 -161.11483 33334 ft 497 kts
2026-05-07 15:24 78.65227 -161.06727 33334 ft 497 kts
2026-05-07 15:24 78.72080 -161.01915 33330 ft 497 kts
2026-05-07 15:25 78.78939 -160.97039 33337 ft 496 kts
2026-05-07 15:25 78.85757 -160.92134 33352 ft 497 kts
2026-05-07 15:26 78.92620 -160.87135 33333 ft 497 kts
2026-05-07 15:26 78.99465 -160.82087 33335 ft 497 kts
2026-05-07 15:27 79.06277 -160.77001 33343 ft 497 kts
2026-05-07 15:27 79.13123 -160.71826 33340 ft 497 kts
2026-05-07 15:28 79.19970 -160.66584 33333 ft 497 kts
2026-05-07 15:28 79.26821 -160.61273 33346 ft 497 kts
2026-05-07 15:29 79.33666 -160.55899 33336 ft 497 kts
2026-05-07 15:29 79.40516 -160.50450 33335 ft 497 kts
2026-05-07 15:30 79.47355 -160.44940 33336 ft 497 kts
2026-05-07 15:30 79.54163 -160.39383 33336 ft 497 kts
2026-05-07 15:31 79.61013 -160.33719 33346 ft 498 kts
2026-05-07 15:31 79.67861 -160.27981 33337 ft 498 kts
2026-05-07 15:32 79.74713 -160.22162 33340 ft 498 kts
2026-05-07 15:32 79.81576 -160.16257 33339 ft 498 kts
2026-05-07 15:33 79.88436 -160.10273 33340 ft 498 kts
2026-05-07 15:33 79.95239 -160.04263 33357 ft 498 kts
2026-05-07 15:34 80.02081 -159.97481 33342 ft 499 kts 11°
2026-05-07 15:34 80.08839 -159.87700 33340 ft 500 kts 13°
2026-05-07 15:35 80.15561 -159.76994 33340 ft 500 kts 13°
2026-05-07 15:35 80.22287 -159.66368 33337 ft 500 kts 13°
2026-05-07 15:36 80.29023 -159.55854 33336 ft 500 kts 13°
2026-05-07 15:36 80.35719 -159.45350 33340 ft 501 kts 13°
2026-05-07 15:37 80.42456 -159.34630 33336 ft 501 kts 13°
2026-05-07 15:37 80.49186 -159.23746 33337 ft 501 kts 13°
2026-05-07 15:38 80.55920 -159.12687 33337 ft 501 kts 13°
2026-05-07 15:38 80.62649 -159.01474 33337 ft 501 kts 14°
2026-05-07 15:39 80.69330 -158.90176 33347 ft 501 kts 14°
2026-05-07 15:39 80.76063 -158.78618 33336 ft 501 kts 14°
2026-05-07 15:40 80.82782 -158.66912 33337 ft 501 kts 14°
2026-05-07 15:40 80.89491 -158.55045 33339 ft 501 kts 14°
2026-05-07 15:41 80.96202 -158.42993 33342 ft 501 kts 14°
2026-05-07 15:41 81.02902 -158.30776 33343 ft 501 kts 14°
2026-05-07 15:42 81.09574 -158.18420 33345 ft 501 kts 15°
2026-05-07 15:42 81.16275 -158.05819 33342 ft 501 kts 15°
2026-05-07 15:43 81.22933 -157.93099 33340 ft 501 kts 15°
2026-05-07 15:43 81.29621 -157.80120 33339 ft 501 kts 15°
2026-05-07 15:44 81.36305 -157.66941 33342 ft 501 kts 15°
2026-05-07 15:44 81.42994 -157.53532 33339 ft 501 kts 15°
2026-05-07 15:45 81.49676 -157.39934 33345 ft 501 kts 16°
2026-05-07 15:45 81.56316 -157.26194 33342 ft 502 kts 16°
2026-05-07 15:46 81.66335 -157.05021 33345 ft 502 kts 16°
2026-05-07 15:47 81.73012 -156.90613 33345 ft 502 kts 16°
2026-05-07 15:47 81.78546 -156.78491 33347 ft 502 kts 17°
2026-05-07 15:48 81.85214 -156.63656 33344 ft 502 kts 17°
2026-05-07 15:48 81.92956 -156.46111 33345 ft 502 kts 17°
2026-05-07 15:49 81.98534 -156.33249 33345 ft 502 kts 17°
2026-05-07 15:49 82.05145 -156.17760 33345 ft 502 kts 17°
2026-05-07 15:50 82.11799 -156.01899 33345 ft 502 kts 17°
2026-05-07 15:50 82.18441 -155.85781 33348 ft 502 kts 18°
2026-05-07 15:51 82.25037 -155.69490 33348 ft 502 kts 18°
2026-05-07 15:51 82.31658 -155.52840 33347 ft 502 kts 18°
2026-05-07 15:52 82.38278 -155.35889 33353 ft 502 kts 18°
2026-05-07 15:52 82.44887 -155.18653 33353 ft 502 kts 18°
2026-05-07 15:53 82.51492 -155.01109 33355 ft 502 kts 19°
2026-05-07 15:53 82.58047 -154.83414 33353 ft 502 kts 19°
2026-05-07 15:54 82.64651 -154.65189 33359 ft 502 kts 19°
2026-05-07 15:54 82.71235 -154.46666 33363 ft 503 kts 19°
2026-05-07 15:55 82.77772 -154.27934 33358 ft 503 kts 19°
2026-05-07 15:55 82.84345 -154.08742 33359 ft 503 kts 20°
2026-05-07 15:56 82.90917 -153.89179 33360 ft 503 kts 20°
2026-05-07 15:56 82.97480 -153.69250 33359 ft 503 kts 20°
2026-05-07 15:57 83.04042 -153.48924 33358 ft 504 kts 20°
2026-05-07 15:57 83.10591 -153.28227 33357 ft 504 kts 20°
2026-05-07 15:58 83.17134 -153.07122 33362 ft 504 kts 20°
2026-05-07 15:58 83.23662 -152.85638 33360 ft 504 kts 21°
2026-05-07 15:59 83.30197 -152.63696 33361 ft 504 kts 21°
2026-05-07 15:59 83.36670 -152.41477 33374 ft 504 kts 21°
2026-05-07 16:00 83.43184 -152.18634 33368 ft 504 kts 22°
2026-05-07 16:00 83.49688 -151.95341 33374 ft 504 kts 22°
2026-05-07 16:01 83.56175 -151.71612 33385 ft 504 kts 22°
2026-05-07 16:01 83.62653 -151.47393 33370 ft 504 kts 22°
2026-05-07 16:02 83.69049 -151.23001 33370 ft 500 kts 23°
2026-05-07 16:02 83.75447 -150.97982 33381 ft 500 kts 23°
2026-05-07 16:03 83.81834 -150.72441 33380 ft 500 kts 23°
2026-05-07 16:03 83.88209 -150.46386 33387 ft 500 kts 24°
2026-05-07 16:04 83.94576 -150.19773 33385 ft 501 kts 24°
2026-05-07 16:04 84.00938 -149.92565 33385 ft 501 kts 24°
2026-05-07 16:05 84.07292 -149.64748 33385 ft 501 kts 24°
2026-05-07 16:05 84.13628 -149.36349 33385 ft 501 kts 25°
2026-05-07 16:06 84.19954 -149.07307 33388 ft 501 kts 25°
2026-05-07 16:06 84.26264 -148.77633 33392 ft 501 kts 25°
2026-05-07 16:07 84.32507 -148.47554 33391 ft 500 kts 26°
2026-05-07 16:07 84.38768 -148.16637 33391 ft 500 kts 26°
2026-05-07 16:08 84.45009 -147.85048 33393 ft 499 kts 26°
2026-05-07 16:08 84.51232 -147.52746 33387 ft 499 kts 26°
2026-05-07 16:09 84.57425 -147.19772 33392 ft 499 kts 27°
2026-05-07 16:09 84.63571 -146.86199 33394 ft 499 kts 27°
2026-05-07 16:10 84.69726 -146.51694 33391 ft 499 kts 27°
2026-05-07 16:10 84.75871 -146.16323 33396 ft 499 kts 28°
2026-05-07 16:11 84.82003 -145.80080 33399 ft 499 kts 28°
2026-05-07 16:11 84.88099 -145.43056 33404 ft 499 kts 28°
2026-05-07 16:12 84.94139 -145.05368 33399 ft 499 kts 29°
2026-05-07 16:12 85.00192 -144.66536 33398 ft 499 kts 29°
2026-05-07 16:13 85.06233 -144.26688 33398 ft 499 kts 30°
2026-05-07 16:13 85.12243 -143.85900 33405 ft 499 kts 30°
2026-05-07 16:14 85.18223 -143.44132 33404 ft 499 kts 31°
2026-05-07 16:14 85.24137 -143.01608 33409 ft 499 kts 31°
2026-05-07 16:15 85.30062 -142.57740 33403 ft 498 kts 31°
2026-05-07 16:15 85.35967 -142.12701 33406 ft 498 kts 32°
2026-05-07 16:16 85.41829 -141.66618 33403 ft 498 kts 32°
2026-05-07 16:16 85.47653 -141.19535 33406 ft 497 kts 33°
2026-05-07 16:17 85.53434 -140.72101 33405 ft 497 kts 32°
2026-05-07 16:17 85.59337 -140.25378 33407 ft 497 kts 31°
2026-05-07 16:18 85.65232 -139.77825 33407 ft 497 kts 32°
2026-05-07 16:18 85.71087 -139.28639 33410 ft 497 kts 32°
2026-05-07 16:19 85.76895 -138.77903 33414 ft 498 kts 33°
2026-05-07 16:19 85.82672 -138.25647 33411 ft 498 kts 34°
2026-05-07 16:20 85.88412 -137.71948 33411 ft 498 kts 34°
2026-05-07 16:20 85.94075 -137.17152 33409 ft 497 kts 35°
2026-05-07 16:21 85.99735 -136.60469 33411 ft 497 kts 35°
2026-05-07 16:21 86.05343 -136.02296 33416 ft 496 kts 36°
2026-05-07 16:22 86.10905 -135.42497 33412 ft 496 kts 36°
2026-05-07 16:22 86.16425 -134.80956 33417 ft 496 kts 37°
2026-05-07 16:23 86.21895 -134.17689 33420 ft 495 kts 37°
2026-05-07 16:23 86.27308 -133.52680 33417 ft 495 kts 38°
2026-05-07 16:24 86.32636 -132.86230 33413 ft 494 kts 39°
2026-05-07 16:24 86.37942 -132.17449 33414 ft 494 kts 39°
2026-05-07 16:25 86.43202 -131.46535 33417 ft 494 kts 40°
2026-05-07 16:25 86.48362 -130.74126 33419 ft 494 kts 41°
2026-05-07 16:26 86.53498 -129.99147 33415 ft 494 kts 41°
2026-05-07 16:26 86.58572 -129.21936 33414 ft 493 kts 42°
2026-05-07 16:27 86.63574 -128.42451 33415 ft 493 kts 43°
2026-05-07 16:27 86.68511 -127.60567 33419 ft 494 kts 44°
2026-05-07 16:28 86.73350 -126.76765 33408 ft 494 kts 45°
2026-05-07 16:28 86.78152 -125.89815 33417 ft 494 kts 46°
2026-05-07 16:29 86.82876 -125.00289 33412 ft 493 kts 46°
2026-05-07 16:29 86.87522 -124.08054 33414 ft 493 kts 47°
2026-05-07 16:30 86.92046 -123.13893 33417 ft 493 kts 48°
2026-05-07 16:30 86.96511 -122.16342 33424 ft 493 kts 49°
2026-05-07 16:31 87.00899 -121.15616 33420 ft 494 kts 50°
2026-05-07 16:31 87.05192 -120.11970 33412 ft 494 kts 51°
2026-05-07 16:32 87.09383 -119.05298 33412 ft 494 kts 52°
2026-05-07 16:32 87.13443 -117.96318 33413 ft 494 kts 53°
2026-05-07 16:33 87.17431 -116.83246 33411 ft 494 kts 55°
2026-05-07 16:33 87.21295 -115.67299 33410 ft 494 kts 56°
2026-05-07 16:34 87.25050 -114.47961 33416 ft 494 kts 57°
2026-05-07 16:34 87.28074 -113.46435 33412 ft 494 kts 58°
2026-05-07 16:35 87.32166 -112.00265 33409 ft 495 kts 60°
2026-05-07 16:35 87.34979 -110.93179 33411 ft 495 kts 61°
2026-05-07 16:36 87.38234 -109.61486 33410 ft 495 kts 62°
2026-05-07 16:36 87.41355 -108.26261 33404 ft 495 kts 63°
2026-05-07 16:37 87.44328 -106.87793 33405 ft 495 kts 65°
2026-05-07 16:37 87.47141 -105.46565 33408 ft 494 kts 67°
2026-05-07 16:38 87.49802 -104.01961 33400 ft 494 kts 68°
2026-05-07 16:38 87.52281 -102.55557 33403 ft 494 kts 70°
2026-05-07 16:39 87.54613 -101.05184 33405 ft 494 kts 71°
2026-05-07 16:39 87.56771 -99.52143 33398 ft 495 kts 72°
2026-05-07 16:40 87.58751 -97.96436 33404 ft 494 kts 75°
2026-05-07 16:40 87.60556 -96.37946 33402 ft 494 kts 76°
2026-05-07 16:41 87.62174 -94.77302 33398 ft 494 kts 78°
2026-05-07 16:41 87.63591 -93.15992 33399 ft 494 kts 79°
2026-05-07 16:42 87.64826 -91.51824 33396 ft 494 kts 81°
2026-05-07 16:42 87.65866 -89.86219 33392 ft 493 kts 83°
2026-05-07 16:43 87.66707 -88.19511 33388 ft 493 kts 84°
2026-05-07 16:43 87.67352 -86.51332 33495 ft 494 kts 86°
2026-05-07 16:44 87.67793 -84.82949 33599 ft 494 kts 88°
2026-05-07 16:44 87.68035 -83.13203 33703 ft 495 kts 89°
2026-05-07 16:45 87.68073 -81.43172 33794 ft 495 kts 91°
2026-05-07 16:45 87.67907 -79.73017 33910 ft 495 kts 93°
2026-05-07 16:46 87.67537 -78.03177 34013 ft 496 kts 94°
2026-05-07 16:46 87.66965 -76.34288 34119 ft 496 kts 96°
2026-05-07 16:47 87.66196 -74.67214 34222 ft 496 kts 98°
2026-05-07 16:47 87.65222 -73.00126 34329 ft 496 kts 99°
2026-05-07 16:48 87.64052 -71.34681 34425 ft 496 kts 101°
2026-05-07 16:48 87.62686 -69.70910 34503 ft 496 kts 103°
2026-05-07 16:49 87.61126 -68.08808 34597 ft 496 kts 104°
2026-05-07 16:49 87.59395 -66.50395 34680 ft 496 kts 106°
2026-05-07 16:50 87.57470 -64.93244 34770 ft 496 kts 108°
2026-05-07 16:50 87.55366 -63.38659 34859 ft 496 kts 109°
2026-05-07 16:51 87.53091 -61.86755 34946 ft 496 kts 110°
2026-05-07 16:51 87.50672 -60.37690 35044 ft 495 kts 112°
2026-05-07 16:52 87.48025 -58.92387 35135 ft 495 kts 114°
2026-05-07 16:52 87.45156 -57.51105 35255 ft 495 kts 116°
2026-05-07 16:53 87.42160 -56.13421 35366 ft 496 kts 117°
2026-05-07 16:53 87.39007 -54.77442 35383 ft 498 kts 118°
2026-05-07 16:54 87.35713 -53.44493 35382 ft 499 kts 120°
2026-05-07 16:54 87.32270 -52.14433 35388 ft 499 kts 121°
2026-05-07 16:55 87.28718 -50.88772 35388 ft 499 kts 122°
2026-05-07 16:55 87.25022 -49.65847 35384 ft 498 kts 123°
2026-05-07 16:56 87.21203 -48.46237 35387 ft 497 kts 124°
2026-05-07 16:56 87.15284 -46.73775 35382 ft 495 kts 126°
2026-05-07 16:57 87.11212 -45.63022 35385 ft 494 kts 127°
2026-05-07 16:57 87.07036 -44.55445 35389 ft 494 kts 129°
2026-05-07 16:58 87.02784 -43.51580 35390 ft 494 kts 129°
2026-05-07 16:58 86.98412 -42.50092 35389 ft 494 kts 130°
2026-05-07 16:59 86.93952 -41.51595 35378 ft 494 kts 131°
2026-05-07 16:59 86.89399 -40.55833 35383 ft 495 kts 133°
2026-05-07 17:00 86.84763 -39.62813 35397 ft 495 kts 134°
2026-05-07 17:00 86.80035 -38.72357 35384 ft 495 kts 134°
2026-05-07 17:01 86.75225 -37.84494 35382 ft 495 kts 135°
2026-05-07 17:01 86.70348 -36.99306 35393 ft 495 kts 136°
2026-05-07 17:02 86.65425 -36.17113 35393 ft 495 kts 137°
2026-05-07 17:02 86.60421 -35.36871 35378 ft 495 kts 137°
2026-05-07 17:03 86.55349 -34.58996 35388 ft 495 kts 139°
2026-05-07 17:03 86.50212 -33.83433 35389 ft 494 kts 139°
2026-05-07 17:04 86.45012 -33.10010 35388 ft 494 kts 140°
2026-05-07 17:04 86.39762 -32.38778 35389 ft 494 kts 141°
2026-05-07 17:05 86.34464 -31.69698 35389 ft 494 kts 141°
2026-05-07 17:05 86.29118 -31.02503 35394 ft 494 kts 142°
2026-05-07 17:06 86.23715 -30.37239 35388 ft 494 kts 142°
2026-05-07 17:06 86.18264 -29.73813 35387 ft 495 kts 143°
2026-05-07 17:07 86.12757 -29.12098 35387 ft 495 kts 144°
2026-05-07 17:07 86.07243 -28.52493 35379 ft 496 kts 144°
2026-05-07 17:08 86.01643 -27.94068 35392 ft 496 kts 145°
2026-05-07 17:08 85.96003 -27.37259 35392 ft 496 kts 146°
2026-05-07 17:09 85.90320 -26.81969 35391 ft 496 kts 146°
2026-05-07 17:09 85.84597 -26.28175 35391 ft 496 kts 147°
2026-05-07 17:10 85.78884 -25.76252 35394 ft 496 kts 147°
2026-05-07 17:10 85.73102 -25.25409 35387 ft 496 kts 148°
2026-05-07 17:11 85.67255 -24.75663 35389 ft 495 kts 148°
2026-05-07 17:11 85.61446 -24.27806 35393 ft 495 kts 148°
2026-05-07 17:12 85.55576 -23.80946 35392 ft 495 kts 149°
2026-05-07 17:12 85.49672 -23.35280 35391 ft 495 kts 149°
2026-05-07 17:13 85.43743 -22.90808 35392 ft 495 kts 150°
2026-05-07 17:13 85.37782 -22.47439 35393 ft 495 kts 150°
2026-05-07 17:14 85.31796 -22.05186 35394 ft 495 kts 151°
2026-05-07 17:14 85.25831 -21.64298 35392 ft 495 kts 151°
2026-05-07 17:15 85.19808 -21.24197 35390 ft 495 kts 152°
2026-05-07 17:15 85.13751 -20.85020 35392 ft 495 kts 152°
2026-05-07 17:16 85.07678 -20.46824 35391 ft 495 kts 152°
2026-05-07 17:16 85.01579 -20.09444 35390 ft 495 kts 153°
2026-05-07 17:17 84.95453 -19.73347 35390 ft 495 kts 154°
2026-05-07 17:17 84.89288 -19.38528 35391 ft 495 kts 154°
2026-05-07 17:18 84.83147 -19.04731 35390 ft 495 kts 154°
2026-05-07 17:18 84.76950 -18.71406 35385 ft 495 kts 154°
2026-05-07 17:19 84.70734 -18.38810 35389 ft 495 kts 155°
2026-05-07 17:19 84.64511 -18.07008 35388 ft 495 kts 155°
2026-05-07 17:20 84.58271 -17.75938 35393 ft 495 kts 155°
2026-05-07 17:20 84.52013 -17.45571 35393 ft 495 kts 156°
2026-05-07 17:21 84.45770 -17.16023 35393 ft 495 kts 156°
2026-05-07 17:21 84.39494 -16.87051 35390 ft 494 kts 156°
2026-05-07 17:22 84.34266 -16.63451 35391 ft 494 kts 156°
2026-05-07 17:22 84.27958 -16.35603 35389 ft 494 kts 157°
2026-05-07 17:23 84.21644 -16.08397 35391 ft 494 kts 157°
2026-05-07 17:23 84.15321 -15.81787 35393 ft 494 kts 157°
2026-05-07 17:24 84.09028 -15.55916 35394 ft 494 kts 158°
2026-05-07 17:24 84.02673 -15.30396 35390 ft 494 kts 158°
2026-05-07 17:25 83.96323 -15.05469 35391 ft 494 kts 158°
2026-05-07 17:25 83.89952 -14.81023 35386 ft 493 kts 158°
2026-05-07 17:26 83.83567 -14.57073 35396 ft 493 kts 159°
2026-05-07 17:26 83.77181 -14.33644 35394 ft 493 kts 159°
2026-05-07 17:27 83.70829 -14.10846 35382 ft 493 kts 159°
2026-05-07 17:27 83.64430 -13.88373 35394 ft 493 kts 159°
2026-05-07 17:28 83.58023 -13.66353 35388 ft 493 kts 159°
2026-05-07 17:28 83.51599 -13.44737 35395 ft 493 kts 160°
2026-05-07 17:29 83.45165 -13.23543 35394 ft 494 kts 160°
2026-05-07 17:29 83.38715 -13.02737 35394 ft 494 kts 160°
2026-05-07 17:30 83.32255 -12.82328 35393 ft 494 kts 160°
2026-05-07 17:30 83.25797 -12.62338 35393 ft 494 kts 160°
2026-05-07 17:31 83.19323 -12.42701 35393 ft 494 kts 160°
2026-05-07 17:31 83.12888 -12.23571 35393 ft 493 kts 161°
2026-05-07 17:32 83.06381 -12.04608 35393 ft 493 kts 161°
2026-05-07 17:32 82.99903 -11.86098 35394 ft 493 kts 161°
2026-05-07 17:33 82.93414 -11.67918 35393 ft 493 kts 161°
2026-05-07 17:33 82.86924 -11.50080 35394 ft 493 kts 161°
2026-05-07 17:34 82.80458 -11.32649 35388 ft 492 kts 161°
2026-05-07 17:34 82.73961 -11.15458 35388 ft 492 kts 162°
2026-05-07 17:35 82.67653 -10.99075 35388 ft 492 kts 162°
2026-05-07 17:35 82.61134 -10.82453 35390 ft 492 kts 162°
2026-05-07 17:36 82.54621 -10.66149 35385 ft 492 kts 162°
2026-05-07 17:36 82.48139 -10.50217 35385 ft 492 kts 162°
2026-05-07 17:37 82.41615 -10.34467 35386 ft 491 kts 162°
2026-05-07 17:37 82.35078 -10.18968 35385 ft 491 kts 162°
2026-05-07 17:38 82.28577 -10.03825 35392 ft 492 kts 163°
2026-05-07 17:38 82.21997 -9.88766 35388 ft 491 kts 163°
2026-05-07 17:39 82.15495 -9.74146 35388 ft 491 kts 163°
2026-05-07 17:39 82.08935 -9.59648 35389 ft 491 kts 163°
2026-05-07 17:40 82.02390 -9.45430 35385 ft 491 kts 163°
2026-05-07 17:40 81.95835 -9.31429 35387 ft 491 kts 163°
2026-05-07 17:41 81.89272 -9.17648 35385 ft 491 kts 163°
2026-05-07 17:41 81.82742 -9.04162 35385 ft 491 kts 163°
2026-05-07 17:42 81.76168 -8.90811 35390 ft 491 kts 163°
2026-05-07 17:42 81.69595 -8.77679 35387 ft 491 kts 164°
2026-05-07 17:43 81.63010 -8.64737 35388 ft 491 kts 164°
2026-05-07 17:43 81.56477 -8.52105 35388 ft 491 kts 164°
2026-05-07 17:44 81.49886 -8.39562 35391 ft 491 kts 164°
2026-05-07 17:44 81.43298 -8.27225 35392 ft 491 kts 164°
2026-05-07 17:45 81.36696 -8.15055 35388 ft 492 kts 164°
2026-05-07 17:45 81.30092 -8.03072 35389 ft 492 kts 164°
2026-05-07 17:46 81.23523 -7.91336 35393 ft 492 kts 165°
2026-05-07 17:46 81.16907 -7.79698 35394 ft 492 kts 164°
2026-05-07 17:47 81.10284 -7.68227 35394 ft 492 kts 165°
2026-05-07 17:47 81.03661 -7.56929 35394 ft 492 kts 165°
2026-05-07 17:48 80.97028 -7.45786 35391 ft 493 kts 165°
2026-05-07 17:48 80.90391 -7.34801 35391 ft 493 kts 165°
2026-05-07 17:49 80.83754 -7.23979 35389 ft 493 kts 165°
2026-05-07 17:49 80.77144 -7.13361 35388 ft 493 kts 165°
2026-05-07 17:50 80.70504 -7.02849 35391 ft 493 kts 165°
2026-05-07 17:50 80.63853 -6.92473 35390 ft 493 kts 165°
2026-05-07 17:51 80.57200 -6.82243 35391 ft 493 kts 165°
2026-05-07 17:51 80.50525 -6.72128 35388 ft 493 kts 165°
2026-05-07 17:52 80.43858 -6.62168 35391 ft 494 kts 165°
2026-05-07 17:52 80.37175 -6.52324 35387 ft 494 kts 165°
2026-05-07 17:53 80.30537 -6.42684 35388 ft 494 kts 166°
2026-05-07 17:53 80.23856 -6.33116 35388 ft 494 kts 166°
2026-05-07 17:54 80.17175 -6.23680 35388 ft 494 kts 166°
2026-05-07 17:54 80.10483 -6.14356 35393 ft 494 kts 166°
2026-05-07 17:55 80.03792 -6.05151 35387 ft 494 kts 166°
2026-05-07 17:55 79.97038 -5.97708 35385 ft 495 kts 174°
2026-05-07 17:56 79.90173 -5.94306 35387 ft 495 kts 174°
2026-05-07 17:56 79.83359 -5.90450 35386 ft 495 kts 173°
2026-05-07 17:57 79.77656 -5.87121 35387 ft 495 kts 173°
2026-05-07 17:57 79.69638 -5.82509 35385 ft 495 kts 173°
2026-05-07 17:58 79.62779 -5.78655 35386 ft 495 kts 173°
2026-05-07 17:58 79.55923 -5.74866 35384 ft 495 kts 173°
2026-05-07 17:59 79.49062 -5.71126 35378 ft 495 kts 173°
2026-05-07 17:59 79.42206 -5.67435 35385 ft 495 kts 173°
2026-05-07 18:00 79.35389 -5.63813 35391 ft 495 kts 173°
2026-05-07 18:00 79.28527 -5.60209 35391 ft 495 kts 173°
2026-05-07 18:01 79.21660 -5.56651 35377 ft 495 kts 173°
2026-05-07 18:01 79.14796 -5.53137 35377 ft 495 kts 173°
2026-05-07 18:02 79.04499 -5.47950 35371 ft 495 kts 173°
2026-05-07 18:03 78.97638 -5.44548 35379 ft 495 kts 173°
2026-05-07 18:03 78.90768 -5.41181 35375 ft 496 kts 173°
2026-05-07 18:04 78.83943 -5.37878 35375 ft 496 kts 173°
2026-05-07 18:04 78.77069 -5.34592 35375 ft 496 kts 174°
2026-05-07 18:05 78.70190 -5.31343 35373 ft 496 kts 173°
2026-05-07 18:05 78.63312 -5.28133 35378 ft 496 kts 174°
2026-05-07 18:06 78.56429 -5.24960 35367 ft 496 kts 173°
2026-05-07 18:06 78.49548 -5.21824 35370 ft 496 kts 174°
2026-05-07 18:07 78.42700 -5.18741 35370 ft 496 kts 174°
2026-05-07 18:07 78.35819 -5.15678 35367 ft 496 kts 174°
2026-05-07 18:08 78.30108 -5.13165 35360 ft 496 kts 173°
2026-05-07 18:08 78.23236 -5.10170 35364 ft 495 kts 173°
2026-05-07 18:09 78.16362 -5.07211 35363 ft 496 kts 174°
2026-05-07 18:09 78.09491 -5.04285 35361 ft 496 kts 174°
2026-05-07 18:10 78.02652 -5.01407 35359 ft 496 kts 174°
2026-05-07 18:10 77.95771 -4.98544 35361 ft 496 kts 173°
2026-05-07 18:11 77.88897 -4.95716 35368 ft 496 kts 174°
2026-05-07 18:11 77.82017 -4.92917 35359 ft 496 kts 174°
2026-05-07 18:12 77.75141 -4.90150 35352 ft 495 kts 174°
2026-05-07 18:12 77.68266 -4.87415 35349 ft 495 kts 174°
2026-05-07 18:13 77.61403 -4.84714 35349 ft 495 kts 174°
2026-05-07 18:13 77.54531 -4.82039 35354 ft 495 kts 174°
2026-05-07 18:14 77.47667 -4.79396 35346 ft 495 kts 174°
2026-05-07 18:14 77.40850 -4.76800 35345 ft 495 kts 174°
2026-05-07 18:15 77.33976 -4.74209 35345 ft 495 kts 174°
2026-05-07 18:15 77.27099 -4.71645 35340 ft 495 kts 174°
2026-05-07 18:16 77.20228 -4.69111 35344 ft 495 kts 174°
2026-05-07 18:16 77.13353 -4.66602 35333 ft 495 kts 174°
2026-05-07 18:17 77.06530 -4.64137 35343 ft 496 kts 174°
2026-05-07 18:17 76.99645 -4.61677 35329 ft 496 kts 174°
2026-05-07 18:18 76.92767 -4.59244 35331 ft 496 kts 174°
2026-05-07 18:18 76.85888 -4.56836 35335 ft 496 kts 174°
2026-05-07 18:19 76.78994 -4.54447 35338 ft 496 kts 174°
2026-05-07 18:19 76.72138 -4.52096 35324 ft 497 kts 174°
2026-05-07 18:20 76.65235 -4.49752 35321 ft 497 kts 175°
2026-05-07 18:20 76.58335 -4.47440 35324 ft 497 kts 174°
2026-05-07 18:21 76.51432 -4.45123 35307 ft 497 kts 174°
2026-05-07 18:21 76.44520 -4.42851 35313 ft 497 kts 174°
2026-05-07 18:22 76.37618 -4.40605 35307 ft 498 kts 174°
2026-05-07 18:22 76.30710 -4.38371 35306 ft 498 kts 174°
2026-05-07 18:23 76.23909 -4.36212 35314 ft 497 kts 174°
2026-05-07 18:23 76.17001 -4.34022 35307 ft 498 kts 174°
2026-05-07 18:24 76.10091 -4.31840 35315 ft 498 kts 174°
2026-05-07 18:24 76.03165 -4.29697 35288 ft 499 kts 175°
2026-05-07 18:25 75.96229 -4.27557 35299 ft 499 kts 174°
2026-05-07 18:25 75.89337 -4.25477 35305 ft 499 kts 174°
2026-05-07 18:26 75.82393 -4.23367 35298 ft 499 kts 174°
2026-05-07 18:26 75.75462 -4.21284 35299 ft 499 kts 175°
2026-05-07 18:27 75.68532 -4.19267 35300 ft 500 kts 175°
2026-05-07 18:27 75.61582 -4.17209 35290 ft 500 kts 175°
2026-05-07 18:28 75.54634 -4.15205 35295 ft 501 kts 174°
2026-05-07 18:28 75.47689 -4.13216 35290 ft 501 kts 175°
2026-05-07 18:29 75.40777 -4.11247 35290 ft 501 kts 175°
2026-05-07 18:29 75.33818 -4.09288 35289 ft 500 kts 175°
2026-05-07 18:30 75.26868 -4.07340 35287 ft 500 kts 175°
2026-05-07 18:30 75.19923 -4.05419 35287 ft 500 kts 175°
2026-05-07 18:31 75.13017 -4.03526 35280 ft 500 kts 175°
2026-05-07 18:31 75.06069 -4.01636 35277 ft 500 kts 175°
2026-05-07 18:32 74.99139 -3.98931 35280 ft 500 kts 169°
2026-05-07 18:32 74.92425 -3.92131 35281 ft 499 kts 163°
2026-05-07 18:33 74.85743 -3.84886 35276 ft 499 kts 163°
2026-05-07 18:33 74.79083 -3.77929 35274 ft 499 kts 164°
2026-05-07 18:34 74.72366 -3.71016 35268 ft 499 kts 164°
2026-05-07 18:34 74.65654 -3.64158 35269 ft 499 kts 164°
2026-05-07 18:35 74.58935 -3.57340 35266 ft 499 kts 164°
2026-05-07 18:35 74.52222 -3.50584 35266 ft 499 kts 164°
2026-05-07 18:36 74.45545 -3.43923 35264 ft 499 kts 164°
2026-05-07 18:36 74.38824 -3.37277 35263 ft 499 kts 164°
2026-05-07 18:37 74.32106 -3.30691 35271 ft 499 kts 164°
2026-05-07 18:37 74.25360 -3.24136 35260 ft 500 kts 164°
2026-05-07 18:38 74.18633 -3.17655 35261 ft 500 kts 165°
2026-05-07 18:38 74.11955 -3.11276 35260 ft 500 kts 165°
2026-05-07 18:39 74.05217 -3.04894 35258 ft 500 kts 165°
2026-05-07 18:39 73.98482 -2.98569 35258 ft 500 kts 165°
2026-05-07 18:40 73.91747 -2.92308 35261 ft 500 kts 165°
2026-05-07 18:40 73.85004 -2.86060 35252 ft 500 kts 165°
2026-05-07 18:41 73.78262 -2.79884 35259 ft 500 kts 165°
2026-05-07 18:41 73.71517 -2.73766 35250 ft 500 kts 165°
2026-05-07 18:42 73.64773 -2.67698 35249 ft 500 kts 165°
2026-05-07 18:42 73.58024 -2.61671 35251 ft 500 kts 165°
2026-05-07 18:43 73.51271 -2.55691 35247 ft 500 kts 165°
2026-05-07 18:43 73.44569 -2.49802 35240 ft 500 kts 165°
2026-05-07 18:44 73.37804 -2.43906 35242 ft 500 kts 165°
2026-05-07 18:44 73.31048 -2.38067 35238 ft 500 kts 165°
2026-05-07 18:45 73.24291 -2.32278 35244 ft 500 kts 165°
2026-05-07 18:45 73.17535 -2.26522 35234 ft 500 kts 166°
2026-05-07 18:46 73.10762 -2.20796 35238 ft 500 kts 165°
2026-05-07 18:46 73.03990 -2.15136 35235 ft 501 kts 165°
2026-05-07 18:47 72.97217 -2.09520 35230 ft 501 kts 166°
2026-05-07 18:47 72.90484 -2.03976 35233 ft 501 kts 166°
2026-05-07 18:48 72.83698 -1.98430 35222 ft 501 kts 166°
2026-05-07 18:48 72.76917 -1.92931 35219 ft 500 kts 166°
2026-05-07 18:49 72.70139 -1.87479 35224 ft 500 kts 166°
2026-05-07 18:49 72.63406 -1.82103 35219 ft 500 kts 166°
2026-05-07 18:50 72.56630 -1.76737 35217 ft 500 kts 166°
2026-05-07 18:50 72.49852 -1.71410 35216 ft 500 kts 166°
2026-05-07 18:51 72.43076 -1.66125 35212 ft 500 kts 166°
2026-05-07 18:51 72.36300 -1.60881 35213 ft 500 kts 166°
2026-05-07 18:52 72.29567 -1.55709 35212 ft 500 kts 166°
2026-05-07 18:52 72.22783 -1.50537 35209 ft 500 kts 167°
2026-05-07 18:53 72.16003 -1.45407 35206 ft 499 kts 167°
2026-05-07 18:53 72.09224 -1.40318 35196 ft 499 kts 167°
2026-05-07 18:54 72.02447 -1.35268 35198 ft 499 kts 167°
2026-05-07 18:54 71.95670 -1.30255 35196 ft 499 kts 167°
2026-05-07 18:55 71.88939 -1.25313 35192 ft 499 kts 167°
2026-05-07 18:55 71.82161 -1.20373 35182 ft 499 kts 167°
2026-05-07 18:56 71.75376 -1.15465 35184 ft 499 kts 167°
2026-05-07 18:56 71.69725 -1.11404 35181 ft 499 kts 167°
2026-05-07 18:57 71.62941 -1.06563 35181 ft 499 kts 167°
2026-05-07 18:57 71.56196 -1.01783 35178 ft 500 kts 167°
2026-05-07 18:58 71.49396 -0.96999 35170 ft 500 kts 167°
2026-05-07 18:58 71.42598 -0.92252 35177 ft 499 kts 167°
2026-05-07 18:59 71.35807 -0.87545 35168 ft 499 kts 167°
2026-05-07 18:59 71.29057 -0.82898 35166 ft 499 kts 167°
2026-05-07 19:00 71.22257 -0.78251 35162 ft 499 kts 167°
2026-05-07 19:00 71.15467 -0.73643 35162 ft 499 kts 168°
2026-05-07 19:01 71.08719 -0.69096 35163 ft 499 kts 168°
2026-05-07 19:01 71.01925 -0.64551 35156 ft 499 kts 168°
2026-05-07 19:02 70.95128 -0.60036 35155 ft 499 kts 168°
2026-05-07 19:02 70.88316 -0.55542 35153 ft 499 kts 168°
2026-05-07 19:03 70.81511 -0.51083 35147 ft 499 kts 168°
2026-05-07 19:03 70.74765 -0.46695 35151 ft 499 kts 168°
2026-05-07 19:04 70.67959 -0.42299 35146 ft 499 kts 168°
2026-05-07 19:04 70.61157 -0.37935 35146 ft 499 kts 168°
2026-05-07 19:05 70.54360 -0.33604 35143 ft 499 kts 168°
2026-05-07 19:05 70.47557 -0.29297 35145 ft 499 kts 168°
2026-05-07 19:06 70.40748 -0.25019 35142 ft 499 kts 169°
2026-05-07 19:06 70.30575 -0.18680 35142 ft 500 kts 169°
2026-05-07 19:07 70.23768 -0.14472 35140 ft 500 kts 169°
2026-05-07 19:07 70.16945 -0.10284 35129 ft 500 kts 169°
2026-05-07 19:08 70.10167 -0.06151 35138 ft 500 kts 169°
2026-05-07 19:08 70.03354 -0.02022 35136 ft 500 kts 169°
2026-05-07 19:09 69.96572 0.02590 35138 ft 501 kts 166°
2026-05-07 19:09 69.89844 0.07990 35133 ft 501 kts 165°
2026-05-07 19:10 69.83099 0.13342 35116 ft 502 kts 165°
2026-05-07 19:10 69.76356 0.18616 35132 ft 502 kts 166°
2026-05-07 19:11 69.69604 0.23850 35130 ft 502 kts 166°
2026-05-07 19:11 69.62848 0.29050 35132 ft 502 kts 166°
2026-05-07 19:12 69.56094 0.34217 35133 ft 502 kts 166°
2026-05-07 19:12 69.49382 0.39320 35124 ft 502 kts 166°
2026-05-07 19:13 69.42632 0.44419 35122 ft 502 kts 166°
2026-05-07 19:13 69.35882 0.49484 35126 ft 501 kts 166°
2026-05-07 19:14 69.29132 0.54517 35127 ft 501 kts 166°
2026-05-07 19:14 69.22387 0.59513 35128 ft 501 kts 166°
2026-05-07 19:15 69.15636 0.64482 35123 ft 501 kts 166°
2026-05-07 19:15 69.08882 0.69423 35129 ft 501 kts 166°
2026-05-07 19:16 69.02137 0.74324 35126 ft 501 kts 166°
2026-05-07 19:16 68.95433 0.79164 35132 ft 501 kts 166°
2026-05-07 19:17 68.88688 0.84005 35127 ft 501 kts 166°
2026-05-07 19:17 68.81932 0.88823 35121 ft 501 kts 167°
2026-05-07 19:18 68.75164 0.93618 35128 ft 501 kts 167°
2026-05-07 19:18 68.68408 0.98376 35131 ft 501 kts 167°
2026-05-07 19:19 68.61648 1.03107 35130 ft 501 kts 167°
2026-05-07 19:19 68.54884 1.07811 35131 ft 501 kts 167°
2026-05-07 19:20 68.48161 1.12457 35126 ft 501 kts 167°
2026-05-07 19:20 68.41383 1.17114 35129 ft 501 kts 167°
2026-05-07 19:21 68.34621 1.21730 35138 ft 501 kts 167°
2026-05-07 19:21 68.27855 1.26321 35134 ft 501 kts 167°
2026-05-07 19:22 68.21089 1.30883 35133 ft 501 kts 167°
2026-05-07 19:22 68.14365 1.35392 35126 ft 501 kts 167°
2026-05-07 19:23 68.07599 1.39899 35136 ft 501 kts 167°
2026-05-07 19:23 68.00828 1.44383 35134 ft 501 kts 168°
2026-05-07 19:24 67.94066 1.48834 35135 ft 501 kts 168°
2026-05-07 19:24 67.87298 1.53262 35131 ft 501 kts 168°
2026-05-07 19:25 67.80528 1.57666 35135 ft 501 kts 168°
2026-05-07 19:25 67.73802 1.62014 35143 ft 501 kts 168°
2026-05-07 19:26 67.67018 1.66375 35140 ft 501 kts 168°
2026-05-07 19:26 67.60247 1.70701 35142 ft 501 kts 168°
2026-05-07 19:27 67.53472 1.75004 35137 ft 500 kts 168°
2026-05-07 19:27 67.46697 1.79283 35146 ft 500 kts 168°
2026-05-07 19:28 67.39961 1.83511 35149 ft 500 kts 168°
2026-05-07 19:28 67.33198 1.87732 35129 ft 500 kts 168°
2026-05-07 19:29 67.26430 1.91931 35132 ft 500 kts 168°
2026-05-07 19:29 67.19658 1.96109 35124 ft 500 kts 169°
2026-05-07 19:30 67.12894 2.00259 35139 ft 500 kts 169°
2026-05-07 19:30 67.06165 2.04362 35145 ft 499 kts 169°
2026-05-07 19:31 66.99395 2.08466 35145 ft 499 kts 169°
2026-05-07 19:31 66.92628 2.12546 35145 ft 499 kts 169°
2026-05-07 19:32 66.85863 2.16602 35129 ft 499 kts 170°
2026-05-07 19:32 66.79095 2.20636 35141 ft 499 kts 170°
2026-05-07 19:33 66.72368 2.24624 35143 ft 499 kts 170°
2026-05-07 19:33 66.65596 2.28615 35144 ft 499 kts 170°
2026-05-07 19:34 66.58816 2.32588 35141 ft 499 kts 170°
2026-05-07 19:34 66.52049 2.36533 35133 ft 499 kts 171°
2026-05-07 19:35 66.45280 2.40457 35141 ft 499 kts 171°
2026-05-07 19:35 66.38521 2.44352 35141 ft 498 kts 171°
2026-05-07 19:36 66.31798 2.48205 35140 ft 498 kts 171°
2026-05-07 19:36 66.25039 2.52058 35139 ft 498 kts 171°
2026-05-07 19:37 66.18285 2.55888 35133 ft 497 kts 171°
2026-05-07 19:37 66.11538 2.59691 35129 ft 496 kts 171°
2026-05-07 19:38 66.04839 2.63447 35135 ft 496 kts 171°
2026-05-07 19:38 65.98093 2.67209 35138 ft 497 kts 171°
2026-05-07 19:39 65.91350 2.70949 35135 ft 497 kts 172°
2026-05-07 19:39 65.85751 2.74041 35130 ft 496 kts 172°
2026-05-07 19:40 65.77888 2.78359 35131 ft 495 kts 172°
2026-05-07 19:40 65.71161 2.82031 35133 ft 495 kts 172°
2026-05-07 19:41 65.64442 2.85678 35133 ft 494 kts 172°
2026-05-07 19:41 65.57772 2.89280 35103 ft 494 kts 172°
2026-05-07 19:42 65.51069 2.92883 35131 ft 492 kts 172°
2026-05-07 19:42 65.44392 2.96451 35134 ft 491 kts 172°
2026-05-07 19:43 65.37719 2.99998 35129 ft 490 kts 173°
2026-05-07 19:43 65.31054 3.03523 35129 ft 490 kts 173°
2026-05-07 19:44 65.24391 3.07027 35111 ft 489 kts 173°
2026-05-07 19:44 65.18883 3.09913 35120 ft 487 kts 173°
2026-05-07 19:45 65.12263 3.13366 35132 ft 486 kts 173°
2026-05-07 19:45 65.04588 3.17343 35127 ft 485 kts 173°
2026-05-07 19:46 64.99068 3.20189 35131 ft 484 kts 173°
2026-05-07 19:46 64.92521 3.23549 35106 ft 483 kts 173°
2026-05-07 19:47 64.85957 3.26902 35113 ft 481 kts 174°
2026-05-07 19:47 64.79416 3.30225 35120 ft 481 kts 173°
2026-05-07 19:48 64.72870 3.33540 35128 ft 480 kts 174°
2026-05-07 19:48 64.66327 3.36831 35123 ft 481 kts 174°
2026-05-07 19:49 64.59820 3.40087 35126 ft 481 kts 174°
2026-05-07 19:49 64.53266 3.43352 35134 ft 482 kts 174°
2026-05-07 19:50 64.46702 3.46607 35126 ft 482 kts 174°
2026-05-07 19:50 64.40130 3.49850 35119 ft 482 kts 174°
2026-05-07 19:51 64.33556 3.53078 35128 ft 483 kts 174°
2026-05-07 19:51 64.27032 3.56267 35119 ft 482 kts 173°
2026-05-07 19:52 64.20457 3.59463 35122 ft 483 kts 173°
2026-05-07 19:52 64.13871 3.62650 35124 ft 483 kts 173°
2026-05-07 19:53 64.07283 3.65822 35126 ft 484 kts 173°
2026-05-07 19:53 64.00693 3.68980 35117 ft 484 kts 173°
2026-05-07 19:54 63.94083 3.72133 35116 ft 485 kts 173°
2026-05-07 19:54 63.87503 3.75256 35126 ft 487 kts 173°
2026-05-07 19:55 63.80863 3.78392 35121 ft 488 kts 173°
2026-05-07 19:55 63.74210 3.81520 35120 ft 489 kts 173°
2026-05-07 19:56 63.67540 3.84642 35084 ft 489 kts 174°
2026-05-07 19:56 63.60870 3.87749 35108 ft 489 kts 174°
2026-05-07 19:57 63.54247 3.90818 35113 ft 489 kts 174°
2026-05-07 19:57 63.47572 3.93896 35117 ft 490 kts 174°
2026-05-07 19:58 63.40886 3.96965 35113 ft 490 kts 174°
2026-05-07 19:58 63.34207 4.00018 35122 ft 489 kts 175°
2026-05-07 19:59 63.27557 4.03042 35117 ft 490 kts 175°
2026-05-07 19:59 63.20885 4.06061 35120 ft 490 kts 175°
2026-05-07 20:00 63.14194 4.09078 35122 ft 490 kts 175°
2026-05-07 20:00 63.07558 4.12878 35119 ft 497 kts 167°
2026-05-07 20:01 63.01049 4.18021 35125 ft 497 kts 167°
2026-05-07 20:01 62.94579 4.23084 35130 ft 497 kts 168°
2026-05-07 20:02 62.87993 4.28140 35127 ft 498 kts 168°
2026-05-07 20:02 62.81473 4.33094 35122 ft 499 kts 168°
2026-05-07 20:03 62.74907 4.38060 35087 ft 499 kts 169°
2026-05-07 20:03 62.68350 4.43002 35110 ft 498 kts 169°
2026-05-07 20:04 62.61807 4.47909 35112 ft 498 kts 169°
2026-05-07 20:04 62.55287 4.52775 35127 ft 499 kts 169°
2026-05-07 20:05 62.48717 4.57656 35132 ft 500 kts 169°
2026-05-07 20:05 62.42137 4.62523 35111 ft 499 kts 169°
2026-05-07 20:06 62.35571 4.67359 35111 ft 498 kts 169°
2026-05-07 20:06 62.28998 4.72177 35113 ft 497 kts 169°
2026-05-07 20:07 62.22442 4.76959 35114 ft 497 kts 169°
2026-05-07 20:07 62.15895 4.81712 35111 ft 496 kts 169°
2026-05-07 20:08 62.09400 4.86408 35110 ft 494 kts 169°
2026-05-07 20:08 62.02903 4.91084 35109 ft 492 kts 169°
2026-05-07 20:09 61.96403 4.95738 35114 ft 491 kts 169°
2026-05-07 20:10 61.86687 5.02655 35096 ft 492 kts 169°
2026-05-07 20:10 61.80162 5.07269 35086 ft 495 kts 169°
2026-05-07 20:11 61.73632 5.11876 35097 ft 495 kts 169°
2026-05-07 20:11 61.67086 5.16474 35097 ft 495 kts 169°
2026-05-07 20:12 61.60595 5.21013 35097 ft 494 kts 169°
2026-05-07 20:12 61.54078 5.25548 35098 ft 493 kts 169°
2026-05-07 20:13 61.47561 5.30062 35107 ft 492 kts 169°
2026-05-07 20:13 61.41065 5.34541 35109 ft 491 kts 169°
2026-05-07 20:14 61.34570 5.39001 35108 ft 491 kts 169°
2026-05-07 20:14 61.28055 5.43451 35099 ft 492 kts 169°
2026-05-07 20:15 61.21550 5.47880 35067 ft 492 kts 169°
2026-05-07 20:15 61.15060 5.52280 35107 ft 490 kts 169°
2026-05-07 20:16 61.08611 5.56631 35106 ft 490 kts 169°
2026-05-07 20:16 61.02077 5.61004 35148 ft 496 kts 169°
2026-05-07 20:17 60.95535 5.65401 35302 ft 492 kts 169°
2026-05-07 20:17 60.89026 5.69743 35414 ft 491 kts 169°
2026-05-07 20:18 60.82531 5.74047 35572 ft 489 kts 169°
2026-05-07 20:18 60.76062 5.78311 35706 ft 488 kts 169°
2026-05-07 20:19 60.69641 5.82532 35846 ft 487 kts 169°
2026-05-07 20:19 60.63175 5.86765 35988 ft 488 kts 169°
2026-05-07 20:20 60.56699 5.90988 36115 ft 489 kts 168°
2026-05-07 20:20 60.50217 5.95200 36262 ft 489 kts 168°
2026-05-07 20:21 60.43740 5.99387 36397 ft 488 kts 168°
2026-05-07 20:21 60.37271 6.03551 36564 ft 488 kts 168°
2026-05-07 20:22 60.30803 6.07699 36692 ft 487 kts 168°
2026-05-07 20:22 60.24338 6.11828 36840 ft 487 kts 168°
2026-05-07 20:23 60.17881 6.15934 36997 ft 486 kts 168°
2026-05-07 20:23 60.11473 6.19993 37088 ft 486 kts 168°
2026-05-07 20:24 60.05013 6.24065 37091 ft 487 kts 168°
2026-05-07 20:24 59.98542 6.28131 37107 ft 486 kts 167°
2026-05-07 20:25 59.92095 6.32164 37108 ft 485 kts 167°
2026-05-07 20:25 59.85653 6.36179 37104 ft 484 kts 167°
2026-05-07 20:26 59.79268 6.40141 37106 ft 483 kts 167°
2026-05-07 20:26 59.72856 6.44102 37092 ft 482 kts 167°
2026-05-07 20:27 59.66455 6.48043 37102 ft 481 kts 167°
2026-05-07 20:27 59.60061 6.51963 37099 ft 480 kts 167°
2026-05-07 20:28 59.53672 6.55863 37111 ft 481 kts 167°
2026-05-07 20:28 59.47268 6.59759 37121 ft 481 kts 167°
2026-05-07 20:29 59.40856 6.63643 37112 ft 482 kts 167°
2026-05-07 20:29 59.34445 6.67511 37120 ft 482 kts 167°
2026-05-07 20:30 59.28031 6.71366 37128 ft 483 kts 167°
2026-05-07 20:30 59.21650 6.75188 37133 ft 482 kts 167°
2026-05-07 20:31 59.15223 6.79022 37138 ft 482 kts 167°
2026-05-07 20:31 59.08812 6.82830 37124 ft 481 kts 167°
2026-05-07 20:32 59.02401 6.86626 37141 ft 480 kts 167°
2026-05-07 20:32 58.97078 6.89766 37142 ft 480 kts 166°
2026-05-07 20:33 58.90811 6.94291 37158 ft 482 kts 162°
2026-05-07 20:33 58.83573 6.99951 37130 ft 482 kts 161°
2026-05-07 20:34 58.78356 7.03998 37144 ft 482 kts 161°
2026-05-07 20:34 58.72115 7.08791 37157 ft 483 kts 161°
2026-05-07 20:35 58.65865 7.13560 37158 ft 483 kts 162°
2026-05-07 20:35 58.59596 7.18322 37152 ft 484 kts 162°
2026-05-07 20:36 58.53363 7.23040 37158 ft 484 kts 162°
2026-05-07 20:36 58.47096 7.27766 37161 ft 484 kts 162°
2026-05-07 20:37 58.40817 7.32484 37153 ft 484 kts 162°
2026-05-07 20:37 58.34549 7.37176 37153 ft 484 kts 162°
2026-05-07 20:38 58.28281 7.41850 37159 ft 484 kts 162°
2026-05-07 20:38 58.22006 7.46508 37162 ft 483 kts 161°
2026-05-07 20:39 58.15786 7.51115 37152 ft 483 kts 161°
2026-05-07 20:39 58.09522 7.55738 37160 ft 483 kts 161°
2026-05-07 20:40 58.03238 7.60349 37161 ft 484 kts 161°
2026-05-07 20:40 57.96952 7.64946 37145 ft 484 kts 161°
2026-05-07 20:41 57.90661 7.69529 37153 ft 484 kts 161°
2026-05-07 20:41 57.84379 7.74091 37159 ft 483 kts 161°
2026-05-07 20:42 57.78109 7.78628 37151 ft 483 kts 161°
2026-05-07 20:42 57.71828 7.83154 37153 ft 483 kts 161°
2026-05-07 20:43 57.65593 7.87631 37130 ft 483 kts 161°
2026-05-07 20:43 57.59319 7.92119 37147 ft 482 kts 161°
2026-05-07 20:44 57.53045 7.96592 37157 ft 483 kts 161°
2026-05-07 20:44 57.46769 8.01048 37155 ft 483 kts 161°
2026-05-07 20:45 57.40491 8.05490 37156 ft 483 kts 161°
2026-05-07 20:45 57.34211 8.09921 37155 ft 483 kts 161°
2026-05-07 20:46 57.27926 8.14333 37151 ft 482 kts 161°
2026-05-07 20:46 57.21651 8.18722 37156 ft 482 kts 161°
2026-05-07 20:47 57.15365 8.23104 37151 ft 482 kts 161°
2026-05-07 20:47 57.09088 8.27465 37156 ft 482 kts 161°
2026-05-07 20:48 57.02815 8.31804 37133 ft 482 kts 160°
2026-05-07 20:48 56.96579 8.36112 37150 ft 482 kts 160°
2026-05-07 20:49 56.90300 8.40428 37156 ft 482 kts 160°
2026-05-07 20:49 56.84115 8.44661 37163 ft 482 kts 161°
2026-05-07 20:50 56.77827 8.48950 37157 ft 482 kts 160°
2026-05-07 20:50 56.71542 8.53223 37160 ft 482 kts 160°
2026-05-07 20:51 56.65254 8.57485 37166 ft 482 kts 160°
2026-05-07 20:51 56.58988 8.61714 37161 ft 482 kts 160°
2026-05-07 20:52 56.52698 8.65944 37156 ft 482 kts 160°
2026-05-07 20:52 56.46398 8.70167 37152 ft 482 kts 160°
2026-05-07 20:53 56.40108 8.74369 37160 ft 482 kts 160°
2026-05-07 20:53 56.33812 8.78559 37161 ft 482 kts 160°
2026-05-07 20:54 56.27555 8.82708 37163 ft 482 kts 160°
2026-05-07 20:54 56.21255 8.86874 37167 ft 482 kts 160°
2026-05-07 20:55 56.14959 8.91024 37163 ft 482 kts 160°
2026-05-07 20:55 56.08655 8.95158 37167 ft 482 kts 160°
2026-05-07 20:56 56.02358 8.99274 37165 ft 482 kts 160°
2026-05-07 20:56 55.96053 9.03383 37161 ft 482 kts 160°
2026-05-07 20:57 55.89758 9.07473 37156 ft 482 kts 160°
2026-05-07 20:57 55.83487 9.11531 37156 ft 482 kts 160°
2026-05-07 20:58 55.77181 9.15601 37151 ft 482 kts 160°
2026-05-07 20:58 55.70876 9.19653 37151 ft 482 kts 160°
2026-05-07 20:59 55.64557 9.23699 37171 ft 482 kts 160°
2026-05-07 20:59 55.58240 9.27731 37159 ft 482 kts 160°
2026-05-07 21:00 55.51922 9.31750 37177 ft 482 kts 160°
2026-05-07 21:00 55.45645 9.35730 37177 ft 482 kts 160°
2026-05-07 21:01 55.39326 9.39723 37175 ft 482 kts 160°
2026-05-07 21:01 55.32989 9.43714 37166 ft 483 kts 160°
2026-05-07 21:02 55.26660 9.47687 37174 ft 483 kts 160°
2026-05-07 21:02 55.20323 9.51651 37157 ft 484 kts 160°
2026-05-07 21:03 55.13982 9.55603 37178 ft 484 kts 160°
2026-05-07 21:03 55.07632 9.59549 37177 ft 484 kts 160°
2026-05-07 21:04 55.01315 9.63461 37186 ft 484 kts 160°
2026-05-07 21:04 54.94959 9.67385 37189 ft 484 kts 160°
2026-05-07 21:05 54.88608 9.71293 37185 ft 484 kts 160°
2026-05-07 21:05 54.82083 9.74098 37163 ft 483 kts 173°
2026-05-07 21:06 54.75369 9.74274 37158 ft 483 kts 185°
2026-05-07 21:06 54.68674 9.73218 37154 ft 483 kts 185°
2026-05-07 21:07 54.62016 9.72161 37156 ft 483 kts 185°
2026-05-07 21:07 54.55315 9.71158 37156 ft 483 kts 185°
2026-05-07 21:08 54.48609 9.70190 37155 ft 484 kts 185°
2026-05-07 21:08 54.41892 9.69232 37161 ft 484 kts 185°
2026-05-07 21:09 54.35169 9.68275 37155 ft 484 kts 185°
2026-05-07 21:09 54.28440 9.67317 37161 ft 484 kts 185°
2026-05-07 21:10 54.21718 9.66363 37156 ft 484 kts 185°
2026-05-07 21:10 54.15033 9.65417 37155 ft 484 kts 185°
2026-05-07 21:11 54.08323 9.64470 37148 ft 484 kts 185°
2026-05-07 21:11 53.98245 9.63059 37139 ft 483 kts 185°
2026-05-07 21:12 53.91537 9.62122 37143 ft 483 kts 185°
2026-05-07 21:12 53.84890 9.61194 37142 ft 482 kts 185°
2026-05-07 21:13 53.78195 9.60260 37138 ft 482 kts 185°
2026-05-07 21:13 53.71502 9.59338 37141 ft 482 kts 185°
2026-05-07 21:14 53.64816 9.58414 37152 ft 482 kts 185°
2026-05-07 21:14 53.58117 9.57489 37146 ft 482 kts 186°
2026-05-07 21:15 53.51458 9.56576 37154 ft 482 kts 186°
2026-05-07 21:15 53.44761 9.55661 37155 ft 483 kts 186°
2026-05-07 21:16 53.38067 9.54747 37135 ft 483 kts 186°
2026-05-07 21:16 53.31366 9.53835 37122 ft 483 kts 186°
2026-05-07 21:17 53.24664 9.52927 37137 ft 483 kts 186°
2026-05-07 21:17 53.17959 9.52021 37131 ft 483 kts 186°
2026-05-07 21:18 53.11338 9.51130 37132 ft 483 kts 186°
2026-05-07 21:18 53.04639 9.50231 37133 ft 484 kts 186°
2026-05-07 21:19 52.97925 9.49332 37131 ft 484 kts 186°
2026-05-07 21:19 52.92349 9.48588 37127 ft 484 kts 186°
2026-05-07 21:20 52.85637 9.47695 37123 ft 484 kts 186°
2026-05-07 21:20 52.78929 9.46806 37128 ft 484 kts 186°
2026-05-07 21:21 52.72215 9.45918 37126 ft 484 kts 186°
2026-05-07 21:21 52.65502 9.45033 37126 ft 484 kts 186°
2026-05-07 21:22 52.58785 9.44150 37129 ft 484 kts 186°
2026-05-07 21:22 52.52061 9.43269 37132 ft 484 kts 186°
2026-05-07 21:23 52.45381 9.42396 37134 ft 485 kts 186°
2026-05-07 21:23 52.38650 9.41520 37125 ft 485 kts 186°
2026-05-07 21:24 52.31923 9.40647 37131 ft 485 kts 186°
2026-05-07 21:24 52.25191 9.39775 37130 ft 485 kts 186°
2026-05-07 21:25 52.18446 9.38905 37125 ft 485 kts 186°
2026-05-07 21:25 52.11744 9.38043 37120 ft 486 kts 186°
2026-05-07 21:26 52.05002 9.37178 37122 ft 486 kts 186°
2026-05-07 21:26 51.98254 9.36316 37118 ft 486 kts 186°
2026-05-07 21:27 51.91526 9.35458 37118 ft 485 kts 186°
2026-05-07 21:27 51.84785 9.34601 37112 ft 485 kts 186°
2026-05-07 21:28 51.78047 9.33748 37115 ft 485 kts 186°
2026-05-07 21:28 51.71309 9.32896 37110 ft 485 kts 186°
2026-05-07 21:29 51.64612 9.32052 37115 ft 485 kts 186°
2026-05-07 21:29 51.57874 9.31206 37113 ft 485 kts 186°
2026-05-07 21:30 51.51141 9.30363 37110 ft 485 kts 186°
2026-05-07 21:30 51.44405 9.29522 37113 ft 485 kts 186°
2026-05-07 21:31 51.37673 9.28685 37111 ft 485 kts 186°
2026-05-07 21:31 51.30940 9.27849 37122 ft 485 kts 186°
2026-05-07 21:32 51.24239 9.27020 37125 ft 485 kts 186°
2026-05-07 21:32 51.17493 9.26187 37124 ft 485 kts 186°
2026-05-07 21:33 51.10752 9.25358 37129 ft 485 kts 186°
2026-05-07 21:33 51.04015 9.24532 37136 ft 485 kts 186°
2026-05-07 21:34 50.97272 9.23707 37129 ft 485 kts 186°
2026-05-07 21:34 50.90581 9.22891 37114 ft 485 kts 186°
2026-05-07 21:35 50.83845 9.22072 37113 ft 485 kts 186°
2026-05-07 21:35 50.77109 9.21254 37103 ft 486 kts 186°
2026-05-07 21:36 50.70373 9.20374 37107 ft 485 kts 189°
2026-05-07 21:36 50.63686 9.18998 37102 ft 484 kts 189°
2026-05-07 21:37 50.57005 9.17560 37105 ft 484 kts 189°
2026-05-07 21:37 50.50315 9.16148 37089 ft 484 kts 189°
2026-05-07 21:38 50.43677 9.14772 37090 ft 484 kts 189°
2026-05-07 21:38 50.36992 9.13394 37103 ft 484 kts 189°
2026-05-07 21:39 50.30308 9.12020 37099 ft 484 kts 189°
2026-05-07 21:39 50.23620 9.10648 37090 ft 483 kts 189°
2026-05-07 21:40 50.16942 9.09281 37085 ft 483 kts 189°
2026-05-07 21:40 50.10321 9.07930 37086 ft 483 kts 189°
2026-05-07 21:41 50.03660 9.06575 37088 ft 483 kts 190°
2026-05-07 21:41 49.96999 9.05223 37084 ft 483 kts 190°
2026-05-07 21:42 49.90328 9.03873 37081 ft 482 kts 190°
2026-05-07 21:42 49.83660 9.02527 37070 ft 482 kts 190°
2026-05-07 21:43 49.77046 9.01197 37081 ft 482 kts 190°
2026-05-07 21:43 49.70395 8.99860 37079 ft 482 kts 190°
2026-05-07 21:44 49.63736 8.98499 37075 ft 482 kts 191°
2026-05-07 21:44 49.57142 8.96707 37073 ft 481 kts 193°
2026-05-07 21:45 49.50565 8.94794 37086 ft 481 kts 193°
2026-05-07 21:45 49.43977 8.92952 37087 ft 481 kts 193°
2026-05-07 21:46 49.37415 8.91160 37078 ft 481 kts 193°
2026-05-07 21:46 49.30814 8.89365 37078 ft 481 kts 193°
2026-05-07 21:47 49.24228 8.87575 37079 ft 481 kts 193°
2026-05-07 21:47 49.17631 8.85785 37056 ft 480 kts 193°
2026-05-07 21:48 49.11094 8.84003 37077 ft 480 kts 193°
2026-05-07 21:48 49.04519 8.82212 37075 ft 480 kts 193°
2026-05-07 21:49 48.97935 8.80426 37080 ft 480 kts 193°
2026-05-07 21:49 48.91361 8.78646 36686 ft 481 kts 193°
2026-05-07 21:50 48.88052 8.77752 35969 ft 482 kts 193°
2026-05-07 21:50 48.84749 8.76866 35198 ft 481 kts 193°
2026-05-07 21:50 48.81455 8.75984 34399 ft 481 kts 193°
2026-05-07 21:50 48.78164 8.75105 33491 ft 481 kts 193°
2026-05-07 21:51 48.74857 8.74221 32545 ft 481 kts 193°
2026-05-07 21:51 48.71563 8.73342 31622 ft 481 kts 193°
2026-05-07 21:51 48.68265 8.72462 30669 ft 481 kts 192°
2026-05-07 21:51 48.64993 8.71591 30010 ft 475 kts 192°
2026-05-07 21:52 48.61744 8.70731 29248 ft 470 kts 192°
2026-05-07 21:52 48.58542 8.69885 28589 ft 464 kts 192°
2026-05-07 21:52 48.55413 8.69055 27945 ft 459 kts 192°
2026-05-07 21:52 48.52283 8.68224 27338 ft 454 kts 192°
2026-05-07 21:53 48.49186 8.67403 26701 ft 449 kts 192°
2026-05-07 21:53 48.46122 8.66592 26081 ft 445 kts 192°
2026-05-07 21:53 48.43083 8.65789 25477 ft 441 kts 192°
2026-05-07 21:53 48.40072 8.64995 24882 ft 438 kts 192°
2026-05-07 21:54 48.37090 8.64199 24289 ft 435 kts 192°
2026-05-07 21:54 48.34131 8.63331 23694 ft 432 kts 193°
2026-05-07 21:54 48.31196 8.62431 22995 ft 429 kts 193°
2026-05-07 21:54 48.28319 8.61545 22383 ft 425 kts 193°
2026-05-07 21:55 48.25435 8.60666 21794 ft 421 kts 193°
2026-05-07 21:55 48.22572 8.59799 21203 ft 417 kts 193°
2026-05-07 21:55 48.19742 8.58950 20637 ft 413 kts 193°
2026-05-07 21:55 48.16928 8.58109 20074 ft 410 kts 193°
2026-05-07 21:56 48.14139 8.57279 19522 ft 407 kts 193°
2026-05-07 21:56 48.11374 8.56458 18950 ft 404 kts 193°
2026-05-07 21:56 48.08627 8.55643 18395 ft 401 kts 193°
2026-05-07 21:56 48.05894 8.54832 17767 ft 399 kts 193°
2026-05-07 21:57 48.03177 8.54027 17174 ft 396 kts 193°
2026-05-07 21:57 48.00521 8.53240 16617 ft 393 kts 193°
2026-05-07 21:57 47.97847 8.52454 16060 ft 389 kts 192°
2026-05-07 21:57 47.95158 8.51995 15510 ft 388 kts 184°
2026-05-07 21:58 47.92465 8.52105 14979 ft 387 kts 177°
2026-05-07 21:58 47.89804 8.52692 14440 ft 386 kts 170°
2026-05-07 21:58 47.87189 8.53545 13909 ft 383 kts 170°
2026-05-07 21:58 47.84590 8.54387 13307 ft 381 kts 170°
2026-05-07 21:59 47.82002 8.55211 12752 ft 378 kts 170°
2026-05-07 21:59 47.79437 8.56015 12198 ft 375 kts 171°
2026-05-07 21:59 47.76885 8.56813 11675 ft 372 kts 171°
2026-05-07 21:59 47.74381 8.57595 11149 ft 369 kts 171°
2026-05-07 22:00 47.71894 8.58370 10936 ft 358 kts 171°
2026-05-07 22:00 47.69525 8.59212 10789 ft 342 kts 163°
2026-05-07 22:00 47.67454 8.60851 10662 ft 335 kts 146°
2026-05-07 22:00 47.65784 8.63195 10538 ft 327 kts 132°
2026-05-07 22:01 47.64385 8.65800 10401 ft 317 kts 131°
2026-05-07 22:01 47.63038 8.68330 10274 ft 308 kts 131°
2026-05-07 22:01 47.61721 8.70786 10138 ft 299 kts 131°
2026-05-07 22:01 47.60437 8.73159 9939 ft 293 kts 131°
2026-05-07 22:02 47.59152 8.75512 9579 ft 292 kts 131°
2026-05-07 22:02 47.57875 8.77843 9232 ft 291 kts 131°
2026-05-07 22:02 47.56603 8.80161 8902 ft 289 kts 131°
2026-05-07 22:02 47.55570 8.82654 8564 ft 283 kts 107°
2026-05-07 22:03 47.55290 8.85435 8399 ft 276 kts 97°
2026-05-07 22:03 47.55091 8.88268 8032 ft 275 kts 100°
2026-05-07 22:03 47.54451 8.90849 7688 ft 266 kts 128°
2026-05-07 22:03 47.53072 8.92595 7343 ft 260 kts 156°
2026-05-07 22:04 47.51360 8.93327 7067 ft 254 kts 175°
2026-05-07 22:04 47.49627 8.93222 6760 ft 246 kts 188°
2026-05-07 22:04 47.47992 8.92822 6595 ft 231 kts 190°
2026-05-07 22:04 47.46968 8.92558 6516 ft 224 kts 190°
2026-05-07 22:05 47.45476 8.92125 6357 ft 212 kts 199°
2026-05-07 22:05 47.44083 8.90283 5969 ft 206 kts 249°
2026-05-07 22:05 47.43850 8.88181 5821 ft 210 kts 266°
2026-05-07 22:05 47.43799 8.86002 5661 ft 213 kts 268°
2026-05-07 22:06 47.43786 8.84513 5471 ft 214 kts 270°
2026-05-07 22:06 47.43860 8.82378 5182 ft 209 kts 274°
2026-05-07 22:06 47.44000 8.80265 4872 ft 204 kts 276°
2026-05-07 22:06 47.44148 8.78204 4575 ft 199 kts 276°
2026-05-07 22:07 47.44293 8.76187 4289 ft 194 kts 276°
2026-05-07 22:07 47.44432 8.74236 3998 ft 189 kts 276°
2026-05-07 22:07 47.44568 8.72337 3704 ft 184 kts 277°
2026-05-07 22:07 47.44704 8.70429 3455 ft 186 kts 277°
2026-05-07 22:08 47.44837 8.68581 3156 ft 175 kts 277°
2026-05-07 22:08 47.44958 8.66879 2907 ft 161 kts 278°
2026-05-07 22:08 47.45073 8.65241 2720 ft 163 kts 278°
2026-05-07 22:08 47.45198 8.63583 2447 ft 159 kts 277°
2026-05-07 22:09 47.45312 8.61984 2219 ft 157 kts 277°
2026-05-07 22:09 47.45423 8.60401 1985 ft 153 kts 277°
2026-05-07 22:09 47.45531 8.58854 1729 ft 150 kts 277°
2026-05-07 22:09 47.45637 8.57345 1499 ft 145 kts 277°
2026-05-07 22:10 47.45742 8.55925 1420 ft 126 kts 276°
2026-05-07 22:10 47.45809 8.54964 1400 ft 73 kts 276°
2026-05-07 22:10 47.45848 8.54429 1395 ft 20 kts 276°
2026-05-07 22:10 47.45893 8.54281 1408 ft 12 kts 321°
2026-05-07 22:11 47.45941 8.54287 1408 ft 7 kts 47°
2026-05-07 22:11 47.45954 8.54353 1400 ft 7 kts 86°
2026-05-07 22:11 47.45952 8.54435 1396 ft 9 kts 95°
2026-05-07 22:11 47.45945 8.54532 1395 ft 10 kts 96°
2026-05-07 22:12 47.45938 8.54639 1402 ft 11 kts 96°
2026-05-07 22:12 47.45930 8.54749 1402 ft 11 kts 97°
2026-05-07 22:12 47.45919 8.54883 1405 ft 13 kts 96°
2026-05-07 22:12 47.45958 8.54995 1405 ft 13 kts 34°
2026-05-07 22:13 47.46039 8.55049 1399 ft 13 kts
2026-05-07 22:13 47.46125 8.55014 1401 ft 13 kts 334°
2026-05-07 22:13 47.46207 8.54957 1404 ft 13 kts 340°
2026-05-07 22:13 47.46278 8.54998 1402 ft 11 kts 60°
2026-05-07 22:14 47.46283 8.55106 1399 ft 11 kts 94°
2026-05-07 22:14 47.46276 8.55215 1398 ft 11 kts 96°
2026-05-07 22:14 47.46268 8.55324 1404 ft 11 kts 96°
2026-05-07 22:14 47.46260 8.55433 1404 ft 11 kts 96°
2026-05-07 22:15 47.46252 8.55541 1412 ft 11 kts 96°
2026-05-07 22:15 47.46245 8.55642 1404 ft 7 kts 97°
2026-05-07 22:15 47.46208 8.55684 1413 ft 7 kts 175°
2026-05-07 22:15 47.46176 8.55685 1406 ft 2 kts 183°
2026-05-07 22:16 47.46168 8.55684 1406 ft 0 kts 184°